<?xml version="1.0" encoding="UTF-8" standalone="no" ?>
<gpx xmlns="http://www.topografix.com/GPX/1/1" xmlns:xsi="http://www.w3.org/2001/XMLSchema-instance" xsi:schemaLocation="http://www.topografix.com/GPX/1/1 http://www.topografix.com/GPX/1/1/gpx.xsd" version="1.1" creator="VisuGPX - https://www.visugpx.com">
  <metadata>
    <name>ChailléOrmeaux_Boucles_19km</name>
    <desc><![CDATA[gnerando idor:6553433_6553489_6956451_7846715_7847315_8111388_8144845]]></desc>
  </metadata>
  <trk>
    <name><![CDATA[ChailléOrmeaux_PeuplierBlanc_4,8km-6553489]]></name>
    <extensions>
      <line xmlns="http://www.topografix.com/GPX/gpx_style/0/2">
        <color>0000FF</color>
        <width>4</width>
      </line>
    </extensions>
    <trkseg>
      <trkpt lat="46.5588" lon="-1.34724">
        <ele>29</ele>
        <time>2023-11-05T08:17:11Z</time>
      </trkpt>
      <trkpt lat="46.55753" lon="-1.34484">
        <ele>33</ele>
        <time>2023-11-05T08:21:49Z</time>
      </trkpt>
      <trkpt lat="46.55768" lon="-1.34389">
        <ele>36</ele>
        <time>2023-11-05T08:23:18Z</time>
      </trkpt>
      <trkpt lat="46.55694" lon="-1.3426">
        <ele>36</ele>
        <time>2023-11-05T08:25:52Z</time>
      </trkpt>
      <trkpt lat="46.55585" lon="-1.34235">
        <ele>33</ele>
        <time>2023-11-05T08:28:20Z</time>
      </trkpt>
      <trkpt lat="46.55523" lon="-1.34269">
        <ele>27</ele>
        <time>2023-11-05T08:29:48Z</time>
      </trkpt>
      <trkpt lat="46.55378" lon="-1.34166">
        <ele>29</ele>
        <time>2023-11-05T08:33:24Z</time>
      </trkpt>
      <trkpt lat="46.55411" lon="-1.34076">
        <ele>38</ele>
        <time>2023-11-05T08:34:57Z</time>
      </trkpt>
      <trkpt lat="46.55331" lon="-1.3411">
        <ele>29</ele>
        <time>2023-11-05T08:36:48Z</time>
      </trkpt>
      <trkpt lat="46.55186" lon="-1.34132">
        <ele>26</ele>
        <time>2023-11-05T08:40:03Z</time>
      </trkpt>
      <trkpt lat="46.54903" lon="-1.34144">
        <ele>24</ele>
        <time>2023-11-05T08:46:21Z</time>
      </trkpt>
      <trkpt lat="46.54773" lon="-1.34063">
        <ele>21</ele>
        <time>2023-11-05T08:49:29Z</time>
      </trkpt>
      <trkpt lat="46.54652" lon="-1.33878">
        <ele>21</ele>
        <time>2023-11-05T08:53:24Z</time>
      </trkpt>
      <trkpt lat="46.5464" lon="-1.3366">
        <ele>24</ele>
        <time>2023-11-05T08:56:44Z</time>
      </trkpt>
      <trkpt lat="46.54561" lon="-1.33454">
        <ele>20</ele>
        <time>2023-11-05T09:00:21Z</time>
      </trkpt>
      <trkpt lat="46.5449" lon="-1.33342">
        <ele>16</ele>
        <time>2023-11-05T09:02:41Z</time>
      </trkpt>
      <trkpt lat="46.54605" lon="-1.33372">
        <ele>27</ele>
        <time>2023-11-05T09:05:17Z</time>
      </trkpt>
      <trkpt lat="46.54667" lon="-1.33557">
        <ele>26</ele>
        <time>2023-11-05T09:08:26Z</time>
      </trkpt>
      <trkpt lat="46.54779" lon="-1.33685">
        <ele>34</ele>
        <time>2023-11-05T09:11:36Z</time>
      </trkpt>
      <trkpt lat="46.54959" lon="-1.33694">
        <ele>37</ele>
        <time>2023-11-05T09:15:36Z</time>
      </trkpt>
      <trkpt lat="46.55086" lon="-1.33621">
        <ele>41</ele>
        <time>2023-11-05T09:18:38Z</time>
      </trkpt>
      <trkpt lat="46.55254" lon="-1.33492">
        <ele>48</ele>
        <time>2023-11-05T09:22:52Z</time>
      </trkpt>
      <trkpt lat="46.55313" lon="-1.33385">
        <ele>51</ele>
        <time>2023-11-05T09:24:58Z</time>
      </trkpt>
      <trkpt lat="46.55425" lon="-1.33372">
        <ele>55</ele>
        <time>2023-11-05T09:27:28Z</time>
      </trkpt>
      <trkpt lat="46.55473" lon="-1.33471">
        <ele>54</ele>
        <time>2023-11-05T09:29:19Z</time>
      </trkpt>
      <trkpt lat="46.55579" lon="-1.33745">
        <ele>46</ele>
        <time>2023-11-05T09:34:07Z</time>
      </trkpt>
      <trkpt lat="46.55549" lon="-1.34003">
        <ele>43</ele>
        <time>2023-11-05T09:38:07Z</time>
      </trkpt>
      <trkpt lat="46.55659" lon="-1.34114">
        <ele>44</ele>
        <time>2023-11-05T09:41:06Z</time>
      </trkpt>
      <trkpt lat="46.55724" lon="-1.34273">
        <ele>36</ele>
        <time>2023-11-05T09:43:56Z</time>
      </trkpt>
      <trkpt lat="46.55777" lon="-1.34432">
        <ele>36</ele>
        <time>2023-11-05T09:46:38Z</time>
      </trkpt>
      <trkpt lat="46.5593" lon="-1.3475">
        <ele>29</ele>
        <time>2023-11-05T09:52:34Z</time>
      </trkpt>
    </trkseg>
  </trk>
  <trk>
    <name><![CDATA[ChailleOrmeaux_NeflierSureau_19.6km-6956451]]></name>
    <extensions>
      <line xmlns="http://www.topografix.com/GPX/gpx_style/0/2">
        <color>0000FF</color>
        <width>4</width>
      </line>
    </extensions>
    <trkseg>
      <trkpt lat="46.58441" lon="-1.36516">
        <ele>41</ele>
        <time>2023-10-31T21:00:07Z</time>
      </trkpt>
      <trkpt lat="46.58459" lon="-1.36521">
        <ele>40</ele>
        <time>2023-10-31T21:00:31Z</time>
      </trkpt>
      <trkpt lat="46.58515" lon="-1.36523">
        <ele>38</ele>
        <time>2023-10-31T21:01:46Z</time>
      </trkpt>
      <trkpt lat="46.58527" lon="-1.36543">
        <ele>39</ele>
        <time>2023-10-31T21:02:11Z</time>
      </trkpt>
      <trkpt lat="46.58545" lon="-1.36549">
        <ele>38</ele>
        <time>2023-10-31T21:02:35Z</time>
      </trkpt>
      <trkpt lat="46.58564" lon="-1.36548">
        <ele>37</ele>
        <time>2023-10-31T21:03:01Z</time>
      </trkpt>
      <trkpt lat="46.58582" lon="-1.36556">
        <ele>37</ele>
        <time>2023-10-31T21:03:26Z</time>
      </trkpt>
      <trkpt lat="46.58598" lon="-1.36541">
        <ele>36</ele>
        <time>2023-10-31T21:03:51Z</time>
      </trkpt>
      <trkpt lat="46.58611" lon="-1.36521">
        <ele>36</ele>
        <time>2023-10-31T21:04:16Z</time>
      </trkpt>
      <trkpt lat="46.58644" lon="-1.36455">
        <ele>34</ele>
        <time>2023-10-31T21:05:31Z</time>
      </trkpt>
      <trkpt lat="46.58663" lon="-1.36454">
        <ele>34</ele>
        <time>2023-10-31T21:05:57Z</time>
      </trkpt>
      <trkpt lat="46.58681" lon="-1.3646">
        <ele>33</ele>
        <time>2023-10-31T21:06:21Z</time>
      </trkpt>
      <trkpt lat="46.58697" lon="-1.36474">
        <ele>33</ele>
        <time>2023-10-31T21:06:46Z</time>
      </trkpt>
      <trkpt lat="46.5871" lon="-1.36493">
        <ele>33</ele>
        <time>2023-10-31T21:07:11Z</time>
      </trkpt>
      <trkpt lat="46.58721" lon="-1.36515">
        <ele>33</ele>
        <time>2023-10-31T21:07:36Z</time>
      </trkpt>
      <trkpt lat="46.58728" lon="-1.36541">
        <ele>33</ele>
        <time>2023-10-31T21:08:01Z</time>
      </trkpt>
      <trkpt lat="46.58728" lon="-1.36568">
        <ele>33</ele>
        <time>2023-10-31T21:08:26Z</time>
      </trkpt>
      <trkpt lat="46.58746" lon="-1.36566">
        <ele>32</ele>
        <time>2023-10-31T21:08:50Z</time>
      </trkpt>
      <trkpt lat="46.58778" lon="-1.36536">
        <ele>31</ele>
        <time>2023-10-31T21:09:41Z</time>
      </trkpt>
      <trkpt lat="46.58797" lon="-1.36535">
        <ele>31</ele>
        <time>2023-10-31T21:10:06Z</time>
      </trkpt>
      <trkpt lat="46.58815" lon="-1.36543">
        <ele>31</ele>
        <time>2023-10-31T21:10:31Z</time>
      </trkpt>
      <trkpt lat="46.58828" lon="-1.36561">
        <ele>31</ele>
        <time>2023-10-31T21:10:55Z</time>
      </trkpt>
      <trkpt lat="46.58839" lon="-1.36583">
        <ele>31</ele>
        <time>2023-10-31T21:11:20Z</time>
      </trkpt>
      <trkpt lat="46.58842" lon="-1.36611">
        <ele>32</ele>
        <time>2023-10-31T21:11:46Z</time>
      </trkpt>
      <trkpt lat="46.58839" lon="-1.36637">
        <ele>32</ele>
        <time>2023-10-31T21:12:10Z</time>
      </trkpt>
      <trkpt lat="46.58832" lon="-1.36664">
        <ele>32</ele>
        <time>2023-10-31T21:12:37Z</time>
      </trkpt>
      <trkpt lat="46.58831" lon="-1.36692">
        <ele>32</ele>
        <time>2023-10-31T21:13:03Z</time>
      </trkpt>
      <trkpt lat="46.58858" lon="-1.36727">
        <ele>33</ele>
        <time>2023-10-31T21:13:51Z</time>
      </trkpt>
      <trkpt lat="46.58876" lon="-1.36734">
        <ele>34</ele>
        <time>2023-10-31T21:14:16Z</time>
      </trkpt>
      <trkpt lat="46.58895" lon="-1.36737">
        <ele>35</ele>
        <time>2023-10-31T21:14:41Z</time>
      </trkpt>
      <trkpt lat="46.58913" lon="-1.36731">
        <ele>36</ele>
        <time>2023-10-31T21:15:06Z</time>
      </trkpt>
      <trkpt lat="46.5893" lon="-1.36717">
        <ele>37</ele>
        <time>2023-10-31T21:15:32Z</time>
      </trkpt>
      <trkpt lat="46.58947" lon="-1.36707">
        <ele>39</ele>
        <time>2023-10-31T21:15:56Z</time>
      </trkpt>
      <trkpt lat="46.58966" lon="-1.36704">
        <ele>41</ele>
        <time>2023-10-31T21:16:22Z</time>
      </trkpt>
      <trkpt lat="46.58977" lon="-1.36728">
        <ele>41</ele>
        <time>2023-10-31T21:16:48Z</time>
      </trkpt>
      <trkpt lat="46.58976" lon="-1.36756">
        <ele>39</ele>
        <time>2023-10-31T21:17:14Z</time>
      </trkpt>
      <trkpt lat="46.58958" lon="-1.36803">
        <ele>37</ele>
        <time>2023-10-31T21:18:03Z</time>
      </trkpt>
      <trkpt lat="46.58961" lon="-1.3683">
        <ele>36</ele>
        <time>2023-10-31T21:18:29Z</time>
      </trkpt>
      <trkpt lat="46.58986" lon="-1.36905">
        <ele>35</ele>
        <time>2023-10-31T21:19:45Z</time>
      </trkpt>
      <trkpt lat="46.58995" lon="-1.36927">
        <ele>35</ele>
        <time>2023-10-31T21:20:08Z</time>
      </trkpt>
      <trkpt lat="46.59008" lon="-1.36946">
        <ele>35</ele>
        <time>2023-10-31T21:20:33Z</time>
      </trkpt>
      <trkpt lat="46.5904" lon="-1.36973">
        <ele>36</ele>
        <time>2023-10-31T21:21:22Z</time>
      </trkpt>
      <trkpt lat="46.59057" lon="-1.36982">
        <ele>37</ele>
        <time>2023-10-31T21:21:47Z</time>
      </trkpt>
      <trkpt lat="46.59077" lon="-1.36984">
        <ele>38</ele>
        <time>2023-10-31T21:22:13Z</time>
      </trkpt>
      <trkpt lat="46.59132" lon="-1.36973">
        <ele>41</ele>
        <time>2023-10-31T21:23:27Z</time>
      </trkpt>
      <trkpt lat="46.59224" lon="-1.36983">
        <ele>45</ele>
        <time>2023-10-31T21:25:31Z</time>
      </trkpt>
      <trkpt lat="46.59279" lon="-1.36976">
        <ele>47</ele>
        <time>2023-10-31T21:26:44Z</time>
      </trkpt>
      <trkpt lat="46.59297" lon="-1.3698">
        <ele>47</ele>
        <time>2023-10-31T21:27:08Z</time>
      </trkpt>
      <trkpt lat="46.59313" lon="-1.36993">
        <ele>47</ele>
        <time>2023-10-31T21:27:33Z</time>
      </trkpt>
      <trkpt lat="46.59348" lon="-1.37061">
        <ele>46</ele>
        <time>2023-10-31T21:28:51Z</time>
      </trkpt>
      <trkpt lat="46.59392" lon="-1.37111">
        <ele>47</ele>
        <time>2023-10-31T21:30:05Z</time>
      </trkpt>
      <trkpt lat="46.59403" lon="-1.37131">
        <ele>48</ele>
        <time>2023-10-31T21:30:29Z</time>
      </trkpt>
      <trkpt lat="46.59418" lon="-1.37147">
        <ele>50</ele>
        <time>2023-10-31T21:30:54Z</time>
      </trkpt>
      <trkpt lat="46.59516" lon="-1.37219">
        <ele>55</ele>
        <time>2023-10-31T21:33:20Z</time>
      </trkpt>
      <trkpt lat="46.59546" lon="-1.37252">
        <ele>55</ele>
        <time>2023-10-31T21:34:10Z</time>
      </trkpt>
      <trkpt lat="46.59563" lon="-1.37262">
        <ele>55</ele>
        <time>2023-10-31T21:34:35Z</time>
      </trkpt>
      <trkpt lat="46.59617" lon="-1.37276">
        <ele>55</ele>
        <time>2023-10-31T21:35:48Z</time>
      </trkpt>
      <trkpt lat="46.59711" lon="-1.37289">
        <ele>56</ele>
        <time>2023-10-31T21:37:54Z</time>
      </trkpt>
      <trkpt lat="46.59729" lon="-1.37288">
        <ele>57</ele>
        <time>2023-10-31T21:38:18Z</time>
      </trkpt>
      <trkpt lat="46.59802" lon="-1.37275">
        <ele>60</ele>
        <time>2023-10-31T21:39:56Z</time>
      </trkpt>
      <trkpt lat="46.5982" lon="-1.37279">
        <ele>60</ele>
        <time>2023-10-31T21:40:20Z</time>
      </trkpt>
      <trkpt lat="46.59839" lon="-1.37276">
        <ele>61</ele>
        <time>2023-10-31T21:40:46Z</time>
      </trkpt>
      <trkpt lat="46.59877" lon="-1.37279">
        <ele>61</ele>
        <time>2023-10-31T21:41:37Z</time>
      </trkpt>
      <trkpt lat="46.59914" lon="-1.37285">
        <ele>61</ele>
        <time>2023-10-31T21:42:26Z</time>
      </trkpt>
      <trkpt lat="46.59932" lon="-1.37289">
        <ele>62</ele>
        <time>2023-10-31T21:42:51Z</time>
      </trkpt>
      <trkpt lat="46.59949" lon="-1.37304">
        <ele>63</ele>
        <time>2023-10-31T21:43:17Z</time>
      </trkpt>
      <trkpt lat="46.59967" lon="-1.37304">
        <ele>64</ele>
        <time>2023-10-31T21:43:41Z</time>
      </trkpt>
      <trkpt lat="46.60021" lon="-1.37326">
        <ele>67</ele>
        <time>2023-10-31T21:44:56Z</time>
      </trkpt>
      <trkpt lat="46.60038" lon="-1.37336">
        <ele>68</ele>
        <time>2023-10-31T21:45:21Z</time>
      </trkpt>
      <trkpt lat="46.60056" lon="-1.37343">
        <ele>68</ele>
        <time>2023-10-31T21:45:45Z</time>
      </trkpt>
      <trkpt lat="46.60075" lon="-1.37347">
        <ele>68</ele>
        <time>2023-10-31T21:46:11Z</time>
      </trkpt>
      <trkpt lat="46.60093" lon="-1.37348">
        <ele>68</ele>
        <time>2023-10-31T21:46:35Z</time>
      </trkpt>
      <trkpt lat="46.60149" lon="-1.37333">
        <ele>67</ele>
        <time>2023-10-31T21:47:51Z</time>
      </trkpt>
      <trkpt lat="46.60168" lon="-1.37335">
        <ele>67</ele>
        <time>2023-10-31T21:48:17Z</time>
      </trkpt>
      <trkpt lat="46.60205" lon="-1.37332">
        <ele>65</ele>
        <time>2023-10-31T21:49:06Z</time>
      </trkpt>
      <trkpt lat="46.60224" lon="-1.37334">
        <ele>64</ele>
        <time>2023-10-31T21:49:31Z</time>
      </trkpt>
      <trkpt lat="46.60242" lon="-1.37339">
        <ele>63</ele>
        <time>2023-10-31T21:49:56Z</time>
      </trkpt>
      <trkpt lat="46.6026" lon="-1.37348">
        <ele>62</ele>
        <time>2023-10-31T21:50:21Z</time>
      </trkpt>
      <trkpt lat="46.60315" lon="-1.37363">
        <ele>59</ele>
        <time>2023-10-31T21:51:36Z</time>
      </trkpt>
      <trkpt lat="46.60352" lon="-1.37369">
        <ele>57</ele>
        <time>2023-10-31T21:52:26Z</time>
      </trkpt>
      <trkpt lat="46.6037" lon="-1.37375">
        <ele>56</ele>
        <time>2023-10-31T21:52:50Z</time>
      </trkpt>
      <trkpt lat="46.60405" lon="-1.3739">
        <ele>54</ele>
        <time>2023-10-31T21:53:39Z</time>
      </trkpt>
      <trkpt lat="46.60437" lon="-1.37416">
        <ele>52</ele>
        <time>2023-10-31T21:54:28Z</time>
      </trkpt>
      <trkpt lat="46.60455" lon="-1.37423">
        <ele>50</ele>
        <time>2023-10-31T21:54:53Z</time>
      </trkpt>
      <trkpt lat="46.60474" lon="-1.37425">
        <ele>49</ele>
        <time>2023-10-31T21:55:18Z</time>
      </trkpt>
      <trkpt lat="46.6049" lon="-1.37441">
        <ele>47</ele>
        <time>2023-10-31T21:55:44Z</time>
      </trkpt>
      <trkpt lat="46.60499" lon="-1.37465">
        <ele>46</ele>
        <time>2023-10-31T21:56:09Z</time>
      </trkpt>
      <trkpt lat="46.60512" lon="-1.37484">
        <ele>45</ele>
        <time>2023-10-31T21:56:34Z</time>
      </trkpt>
      <trkpt lat="46.60529" lon="-1.37493">
        <ele>45</ele>
        <time>2023-10-31T21:56:58Z</time>
      </trkpt>
      <trkpt lat="46.60545" lon="-1.37505">
        <ele>45</ele>
        <time>2023-10-31T21:57:22Z</time>
      </trkpt>
      <trkpt lat="46.60547" lon="-1.37559">
        <ele>44</ele>
        <time>2023-10-31T21:58:11Z</time>
      </trkpt>
      <trkpt lat="46.60553" lon="-1.37584">
        <ele>44</ele>
        <time>2023-10-31T21:58:36Z</time>
      </trkpt>
      <trkpt lat="46.60556" lon="-1.37665">
        <ele>41</ele>
        <time>2023-10-31T21:59:50Z</time>
      </trkpt>
      <trkpt lat="46.60566" lon="-1.37689">
        <ele>41</ele>
        <time>2023-10-31T22:00:16Z</time>
      </trkpt>
      <trkpt lat="46.60591" lon="-1.3773">
        <ele>40</ele>
        <time>2023-10-31T22:01:06Z</time>
      </trkpt>
      <trkpt lat="46.60596" lon="-1.37755">
        <ele>39</ele>
        <time>2023-10-31T22:01:30Z</time>
      </trkpt>
      <trkpt lat="46.60614" lon="-1.37803">
        <ele>39</ele>
        <time>2023-10-31T22:02:20Z</time>
      </trkpt>
      <trkpt lat="46.60626" lon="-1.37824">
        <ele>39</ele>
        <time>2023-10-31T22:02:45Z</time>
      </trkpt>
      <trkpt lat="46.60634" lon="-1.37877">
        <ele>37</ele>
        <time>2023-10-31T22:03:35Z</time>
      </trkpt>
      <trkpt lat="46.6065" lon="-1.37926">
        <ele>35</ele>
        <time>2023-10-31T22:04:25Z</time>
      </trkpt>
      <trkpt lat="46.6068" lon="-1.37995">
        <ele>35</ele>
        <time>2023-10-31T22:05:39Z</time>
      </trkpt>
      <trkpt lat="46.60696" lon="-1.38043">
        <ele>36</ele>
        <time>2023-10-31T22:06:28Z</time>
      </trkpt>
      <trkpt lat="46.60702" lon="-1.38071">
        <ele>36</ele>
        <time>2023-10-31T22:06:55Z</time>
      </trkpt>
      <trkpt lat="46.60706" lon="-1.38124">
        <ele>35</ele>
        <time>2023-10-31T22:07:44Z</time>
      </trkpt>
      <trkpt lat="46.60721" lon="-1.38174">
        <ele>36</ele>
        <time>2023-10-31T22:08:34Z</time>
      </trkpt>
      <trkpt lat="46.60761" lon="-1.38234">
        <ele>37</ele>
        <time>2023-10-31T22:09:51Z</time>
      </trkpt>
      <trkpt lat="46.60775" lon="-1.38251">
        <ele>37</ele>
        <time>2023-10-31T22:10:15Z</time>
      </trkpt>
      <trkpt lat="46.60781" lon="-1.38276">
        <ele>37</ele>
        <time>2023-10-31T22:10:39Z</time>
      </trkpt>
      <trkpt lat="46.60773" lon="-1.38331">
        <ele>36</ele>
        <time>2023-10-31T22:11:31Z</time>
      </trkpt>
      <trkpt lat="46.60773" lon="-1.38359">
        <ele>36</ele>
        <time>2023-10-31T22:11:57Z</time>
      </trkpt>
      <trkpt lat="46.60792" lon="-1.38463">
        <ele>37</ele>
        <time>2023-10-31T22:13:35Z</time>
      </trkpt>
      <trkpt lat="46.608" lon="-1.38543">
        <ele>37</ele>
        <time>2023-10-31T22:14:49Z</time>
      </trkpt>
      <trkpt lat="46.60817" lon="-1.3855">
        <ele>37</ele>
        <time>2023-10-31T22:15:13Z</time>
      </trkpt>
      <trkpt lat="46.60835" lon="-1.38553">
        <ele>38</ele>
        <time>2023-10-31T22:15:37Z</time>
      </trkpt>
      <trkpt lat="46.60873" lon="-1.38553">
        <ele>41</ele>
        <time>2023-10-31T22:16:28Z</time>
      </trkpt>
      <trkpt lat="46.60909" lon="-1.38557">
        <ele>44</ele>
        <time>2023-10-31T22:17:16Z</time>
      </trkpt>
      <trkpt lat="46.60927" lon="-1.38563">
        <ele>46</ele>
        <time>2023-10-31T22:17:41Z</time>
      </trkpt>
      <trkpt lat="46.60943" lon="-1.38577">
        <ele>46</ele>
        <time>2023-10-31T22:18:06Z</time>
      </trkpt>
      <trkpt lat="46.60938" lon="-1.38604">
        <ele>45</ele>
        <time>2023-10-31T22:18:31Z</time>
      </trkpt>
      <trkpt lat="46.60904" lon="-1.38703">
        <ele>41</ele>
        <time>2023-10-31T22:20:13Z</time>
      </trkpt>
      <trkpt lat="46.60883" lon="-1.38779">
        <ele>40</ele>
        <time>2023-10-31T22:21:28Z</time>
      </trkpt>
      <trkpt lat="46.60784" lon="-1.38944">
        <ele>39</ele>
        <time>2023-10-31T22:24:49Z</time>
      </trkpt>
      <trkpt lat="46.60757" lon="-1.38982">
        <ele>38</ele>
        <time>2023-10-31T22:25:39Z</time>
      </trkpt>
      <trkpt lat="46.60686" lon="-1.39066">
        <ele>35</ele>
        <time>2023-10-31T22:27:41Z</time>
      </trkpt>
      <trkpt lat="46.60673" lon="-1.39087">
        <ele>34</ele>
        <time>2023-10-31T22:28:07Z</time>
      </trkpt>
      <trkpt lat="46.60661" lon="-1.39109">
        <ele>34</ele>
        <time>2023-10-31T22:28:33Z</time>
      </trkpt>
      <trkpt lat="46.60623" lon="-1.39204">
        <ele>35</ele>
        <time>2023-10-31T22:30:13Z</time>
      </trkpt>
      <trkpt lat="46.6061" lon="-1.39225">
        <ele>35</ele>
        <time>2023-10-31T22:30:39Z</time>
      </trkpt>
      <trkpt lat="46.60595" lon="-1.3924">
        <ele>36</ele>
        <time>2023-10-31T22:31:03Z</time>
      </trkpt>
      <trkpt lat="46.60577" lon="-1.39248">
        <ele>36</ele>
        <time>2023-10-31T22:31:29Z</time>
      </trkpt>
      <trkpt lat="46.60558" lon="-1.3925">
        <ele>36</ele>
        <time>2023-10-31T22:31:54Z</time>
      </trkpt>
      <trkpt lat="46.6054" lon="-1.39255">
        <ele>36</ele>
        <time>2023-10-31T22:32:18Z</time>
      </trkpt>
      <trkpt lat="46.60556" lon="-1.3927">
        <ele>36</ele>
        <time>2023-10-31T22:32:44Z</time>
      </trkpt>
      <trkpt lat="46.60573" lon="-1.39262">
        <ele>36</ele>
        <time>2023-10-31T22:33:08Z</time>
      </trkpt>
      <trkpt lat="46.60557" lon="-1.39275">
        <ele>36</ele>
        <time>2023-10-31T22:33:32Z</time>
      </trkpt>
      <trkpt lat="46.60575" lon="-1.39269">
        <ele>36</ele>
        <time>2023-10-31T22:33:57Z</time>
      </trkpt>
      <trkpt lat="46.60557" lon="-1.39272">
        <ele>36</ele>
        <time>2023-10-31T22:34:21Z</time>
      </trkpt>
      <trkpt lat="46.6054" lon="-1.39263">
        <ele>36</ele>
        <time>2023-10-31T22:34:45Z</time>
      </trkpt>
      <trkpt lat="46.60532" lon="-1.39238">
        <ele>36</ele>
        <time>2023-10-31T22:35:10Z</time>
      </trkpt>
      <trkpt lat="46.6052" lon="-1.39219">
        <ele>35</ele>
        <time>2023-10-31T22:35:34Z</time>
      </trkpt>
      <trkpt lat="46.60499" lon="-1.39174">
        <ele>34</ele>
        <time>2023-10-31T22:36:24Z</time>
      </trkpt>
      <trkpt lat="46.60487" lon="-1.39153">
        <ele>35</ele>
        <time>2023-10-31T22:36:49Z</time>
      </trkpt>
      <trkpt lat="46.60472" lon="-1.39136">
        <ele>35</ele>
        <time>2023-10-31T22:37:14Z</time>
      </trkpt>
      <trkpt lat="46.60454" lon="-1.39089">
        <ele>35</ele>
        <time>2023-10-31T22:38:04Z</time>
      </trkpt>
      <trkpt lat="46.60364" lon="-1.39057">
        <ele>43</ele>
        <time>2023-10-31T22:40:07Z</time>
      </trkpt>
      <trkpt lat="46.60262" lon="-1.38992">
        <ele>49</ele>
        <time>2023-10-31T22:42:36Z</time>
      </trkpt>
      <trkpt lat="46.60262" lon="-1.38966">
        <ele>49</ele>
        <time>2023-10-31T22:43:00Z</time>
      </trkpt>
      <trkpt lat="46.60286" lon="-1.38864">
        <ele>47</ele>
        <time>2023-10-31T22:44:39Z</time>
      </trkpt>
      <trkpt lat="46.60294" lon="-1.38839">
        <ele>46</ele>
        <time>2023-10-31T22:45:04Z</time>
      </trkpt>
      <trkpt lat="46.6041" lon="-1.38627">
        <ele>41</ele>
        <time>2023-10-31T22:49:12Z</time>
      </trkpt>
      <trkpt lat="46.60418" lon="-1.38602">
        <ele>40</ele>
        <time>2023-10-31T22:49:38Z</time>
      </trkpt>
      <trkpt lat="46.60417" lon="-1.38575">
        <ele>40</ele>
        <time>2023-10-31T22:50:02Z</time>
      </trkpt>
      <trkpt lat="46.6038" lon="-1.38513">
        <ele>40</ele>
        <time>2023-10-31T22:51:18Z</time>
      </trkpt>
      <trkpt lat="46.60373" lon="-1.38488">
        <ele>39</ele>
        <time>2023-10-31T22:51:42Z</time>
      </trkpt>
      <trkpt lat="46.60364" lon="-1.38409">
        <ele>37</ele>
        <time>2023-10-31T22:52:56Z</time>
      </trkpt>
      <trkpt lat="46.60348" lon="-1.38361">
        <ele>37</ele>
        <time>2023-10-31T22:53:45Z</time>
      </trkpt>
      <trkpt lat="46.60336" lon="-1.38341">
        <ele>37</ele>
        <time>2023-10-31T22:54:09Z</time>
      </trkpt>
      <trkpt lat="46.60266" lon="-1.38251">
        <ele>36</ele>
        <time>2023-10-31T22:56:14Z</time>
      </trkpt>
      <trkpt lat="46.60254" lon="-1.38231">
        <ele>36</ele>
        <time>2023-10-31T22:56:38Z</time>
      </trkpt>
      <trkpt lat="46.60251" lon="-1.38204">
        <ele>35</ele>
        <time>2023-10-31T22:57:03Z</time>
      </trkpt>
      <trkpt lat="46.60256" lon="-1.38177">
        <ele>34</ele>
        <time>2023-10-31T22:57:29Z</time>
      </trkpt>
      <trkpt lat="46.60293" lon="-1.38024">
        <ele>34</ele>
        <time>2023-10-31T22:59:58Z</time>
      </trkpt>
      <trkpt lat="46.60289" lon="-1.37998">
        <ele>34</ele>
        <time>2023-10-31T23:00:22Z</time>
      </trkpt>
      <trkpt lat="46.60271" lon="-1.37989">
        <ele>34</ele>
        <time>2023-10-31T23:00:47Z</time>
      </trkpt>
      <trkpt lat="46.60253" lon="-1.37987">
        <ele>35</ele>
        <time>2023-10-31T23:01:11Z</time>
      </trkpt>
      <trkpt lat="46.60238" lon="-1.37971">
        <ele>34</ele>
        <time>2023-10-31T23:01:36Z</time>
      </trkpt>
      <trkpt lat="46.60246" lon="-1.37919">
        <ele>34</ele>
        <time>2023-10-31T23:02:25Z</time>
      </trkpt>
      <trkpt lat="46.60244" lon="-1.37893">
        <ele>33</ele>
        <time>2023-10-31T23:02:49Z</time>
      </trkpt>
      <trkpt lat="46.60225" lon="-1.37886">
        <ele>32</ele>
        <time>2023-10-31T23:03:15Z</time>
      </trkpt>
      <trkpt lat="46.60189" lon="-1.3789">
        <ele>31</ele>
        <time>2023-10-31T23:04:03Z</time>
      </trkpt>
      <trkpt lat="46.60181" lon="-1.37865">
        <ele>30</ele>
        <time>2023-10-31T23:04:29Z</time>
      </trkpt>
      <trkpt lat="46.60172" lon="-1.37785">
        <ele>31</ele>
        <time>2023-10-31T23:05:43Z</time>
      </trkpt>
      <trkpt lat="46.60172" lon="-1.37674">
        <ele>34</ele>
        <time>2023-10-31T23:07:25Z</time>
      </trkpt>
      <trkpt lat="46.60154" lon="-1.37666">
        <ele>36</ele>
        <time>2023-10-31T23:07:50Z</time>
      </trkpt>
      <trkpt lat="46.60136" lon="-1.37675">
        <ele>36</ele>
        <time>2023-10-31T23:08:15Z</time>
      </trkpt>
      <trkpt lat="46.60108" lon="-1.37709">
        <ele>35</ele>
        <time>2023-10-31T23:09:04Z</time>
      </trkpt>
      <trkpt lat="46.60075" lon="-1.37736">
        <ele>34</ele>
        <time>2023-10-31T23:09:55Z</time>
      </trkpt>
      <trkpt lat="46.60057" lon="-1.37744">
        <ele>34</ele>
        <time>2023-10-31T23:10:20Z</time>
      </trkpt>
      <trkpt lat="46.60024" lon="-1.37766">
        <ele>34</ele>
        <time>2023-10-31T23:11:08Z</time>
      </trkpt>
      <trkpt lat="46.59989" lon="-1.37784">
        <ele>34</ele>
        <time>2023-10-31T23:11:58Z</time>
      </trkpt>
      <trkpt lat="46.59957" lon="-1.37812">
        <ele>32</ele>
        <time>2023-10-31T23:12:47Z</time>
      </trkpt>
      <trkpt lat="46.59944" lon="-1.37833">
        <ele>31</ele>
        <time>2023-10-31T23:13:13Z</time>
      </trkpt>
      <trkpt lat="46.59912" lon="-1.37862">
        <ele>32</ele>
        <time>2023-10-31T23:14:04Z</time>
      </trkpt>
      <trkpt lat="46.59895" lon="-1.37871">
        <ele>32</ele>
        <time>2023-10-31T23:14:28Z</time>
      </trkpt>
      <trkpt lat="46.59876" lon="-1.37877">
        <ele>32</ele>
        <time>2023-10-31T23:14:54Z</time>
      </trkpt>
      <trkpt lat="46.59819" lon="-1.37885">
        <ele>31</ele>
        <time>2023-10-31T23:16:10Z</time>
      </trkpt>
      <trkpt lat="46.5976" lon="-1.37951">
        <ele>32</ele>
        <time>2023-10-31T23:17:50Z</time>
      </trkpt>
      <trkpt lat="46.59741" lon="-1.37949">
        <ele>33</ele>
        <time>2023-10-31T23:18:15Z</time>
      </trkpt>
      <trkpt lat="46.59705" lon="-1.37955">
        <ele>33</ele>
        <time>2023-10-31T23:19:03Z</time>
      </trkpt>
      <trkpt lat="46.59687" lon="-1.3795">
        <ele>34</ele>
        <time>2023-10-31T23:19:28Z</time>
      </trkpt>
      <trkpt lat="46.59651" lon="-1.37933">
        <ele>33</ele>
        <time>2023-10-31T23:20:18Z</time>
      </trkpt>
      <trkpt lat="46.59633" lon="-1.37931">
        <ele>33</ele>
        <time>2023-10-31T23:20:42Z</time>
      </trkpt>
      <trkpt lat="46.59614" lon="-1.37934">
        <ele>33</ele>
        <time>2023-10-31T23:21:08Z</time>
      </trkpt>
      <trkpt lat="46.59601" lon="-1.37913">
        <ele>32</ele>
        <time>2023-10-31T23:21:34Z</time>
      </trkpt>
      <trkpt lat="46.59579" lon="-1.37868">
        <ele>32</ele>
        <time>2023-10-31T23:22:24Z</time>
      </trkpt>
      <trkpt lat="46.59563" lon="-1.37855">
        <ele>33</ele>
        <time>2023-10-31T23:22:49Z</time>
      </trkpt>
      <trkpt lat="46.59544" lon="-1.37849">
        <ele>34</ele>
        <time>2023-10-31T23:23:15Z</time>
      </trkpt>
      <trkpt lat="46.59526" lon="-1.37854">
        <ele>36</ele>
        <time>2023-10-31T23:23:39Z</time>
      </trkpt>
      <trkpt lat="46.59509" lon="-1.37845">
        <ele>36</ele>
        <time>2023-10-31T23:24:03Z</time>
      </trkpt>
      <trkpt lat="46.59476" lon="-1.37817">
        <ele>38</ele>
        <time>2023-10-31T23:24:54Z</time>
      </trkpt>
      <trkpt lat="46.59462" lon="-1.378">
        <ele>39</ele>
        <time>2023-10-31T23:25:19Z</time>
      </trkpt>
      <trkpt lat="46.59439" lon="-1.37756">
        <ele>40</ele>
        <time>2023-10-31T23:26:09Z</time>
      </trkpt>
      <trkpt lat="46.59425" lon="-1.37706">
        <ele>39</ele>
        <time>2023-10-31T23:26:59Z</time>
      </trkpt>
      <trkpt lat="46.59405" lon="-1.37659">
        <ele>37</ele>
        <time>2023-10-31T23:27:50Z</time>
      </trkpt>
      <trkpt lat="46.59388" lon="-1.3765">
        <ele>39</ele>
        <time>2023-10-31T23:28:14Z</time>
      </trkpt>
      <trkpt lat="46.59373" lon="-1.37665">
        <ele>42</ele>
        <time>2023-10-31T23:28:38Z</time>
      </trkpt>
      <trkpt lat="46.59363" lon="-1.37687">
        <ele>44</ele>
        <time>2023-10-31T23:29:02Z</time>
      </trkpt>
      <trkpt lat="46.59358" lon="-1.37713">
        <ele>45</ele>
        <time>2023-10-31T23:29:27Z</time>
      </trkpt>
      <trkpt lat="46.59348" lon="-1.37737">
        <ele>47</ele>
        <time>2023-10-31T23:29:53Z</time>
      </trkpt>
      <trkpt lat="46.5933" lon="-1.37736">
        <ele>48</ele>
        <time>2023-10-31T23:30:17Z</time>
      </trkpt>
      <trkpt lat="46.59309" lon="-1.37692">
        <ele>48</ele>
        <time>2023-10-31T23:31:06Z</time>
      </trkpt>
      <trkpt lat="46.59283" lon="-1.37653">
        <ele>48</ele>
        <time>2023-10-31T23:31:56Z</time>
      </trkpt>
      <trkpt lat="46.59252" lon="-1.37624">
        <ele>46</ele>
        <time>2023-10-31T23:32:45Z</time>
      </trkpt>
      <trkpt lat="46.59234" lon="-1.37611">
        <ele>45</ele>
        <time>2023-10-31T23:33:12Z</time>
      </trkpt>
      <trkpt lat="46.59215" lon="-1.37602">
        <ele>45</ele>
        <time>2023-10-31T23:33:38Z</time>
      </trkpt>
      <trkpt lat="46.59197" lon="-1.37601">
        <ele>45</ele>
        <time>2023-10-31T23:34:02Z</time>
      </trkpt>
      <trkpt lat="46.5914" lon="-1.37607">
        <ele>46</ele>
        <time>2023-10-31T23:35:19Z</time>
      </trkpt>
      <trkpt lat="46.59122" lon="-1.37607">
        <ele>47</ele>
        <time>2023-10-31T23:35:43Z</time>
      </trkpt>
      <trkpt lat="46.59103" lon="-1.37601">
        <ele>47</ele>
        <time>2023-10-31T23:36:09Z</time>
      </trkpt>
      <trkpt lat="46.59085" lon="-1.37603">
        <ele>47</ele>
        <time>2023-10-31T23:36:33Z</time>
      </trkpt>
      <trkpt lat="46.59051" lon="-1.37667">
        <ele>52</ele>
        <time>2023-10-31T23:37:47Z</time>
      </trkpt>
      <trkpt lat="46.59037" lon="-1.37685">
        <ele>52</ele>
        <time>2023-10-31T23:38:12Z</time>
      </trkpt>
      <trkpt lat="46.5902" lon="-1.37674">
        <ele>52</ele>
        <time>2023-10-31T23:38:37Z</time>
      </trkpt>
      <trkpt lat="46.58984" lon="-1.37613">
        <ele>50</ele>
        <time>2023-10-31T23:39:50Z</time>
      </trkpt>
      <trkpt lat="46.58955" lon="-1.37581">
        <ele>48</ele>
        <time>2023-10-31T23:40:39Z</time>
      </trkpt>
      <trkpt lat="46.58871" lon="-1.37518">
        <ele>40</ele>
        <time>2023-10-31T23:42:45Z</time>
      </trkpt>
      <trkpt lat="46.58854" lon="-1.37508">
        <ele>38</ele>
        <time>2023-10-31T23:43:10Z</time>
      </trkpt>
      <trkpt lat="46.58819" lon="-1.37496">
        <ele>38</ele>
        <time>2023-10-31T23:43:58Z</time>
      </trkpt>
      <trkpt lat="46.588" lon="-1.37495">
        <ele>40</ele>
        <time>2023-10-31T23:44:23Z</time>
      </trkpt>
      <trkpt lat="46.58763" lon="-1.37509">
        <ele>43</ele>
        <time>2023-10-31T23:45:14Z</time>
      </trkpt>
      <trkpt lat="46.58745" lon="-1.37513">
        <ele>45</ele>
        <time>2023-10-31T23:45:38Z</time>
      </trkpt>
      <trkpt lat="46.58727" lon="-1.37511">
        <ele>46</ele>
        <time>2023-10-31T23:46:02Z</time>
      </trkpt>
      <trkpt lat="46.58709" lon="-1.37504">
        <ele>48</ele>
        <time>2023-10-31T23:46:27Z</time>
      </trkpt>
      <trkpt lat="46.58673" lon="-1.37485">
        <ele>53</ele>
        <time>2023-10-31T23:47:18Z</time>
      </trkpt>
      <trkpt lat="46.58664" lon="-1.37433">
        <ele>55</ele>
        <time>2023-10-31T23:48:07Z</time>
      </trkpt>
      <trkpt lat="46.58662" lon="-1.37407">
        <ele>55</ele>
        <time>2023-10-31T23:48:31Z</time>
      </trkpt>
      <trkpt lat="46.58636" lon="-1.37275">
        <ele>55</ele>
        <time>2023-10-31T23:50:37Z</time>
      </trkpt>
      <trkpt lat="46.58612" lon="-1.37202">
        <ele>55</ele>
        <time>2023-10-31T23:51:52Z</time>
      </trkpt>
      <trkpt lat="46.58613" lon="-1.37095">
        <ele>53</ele>
        <time>2023-10-31T23:53:30Z</time>
      </trkpt>
      <trkpt lat="46.58603" lon="-1.37072">
        <ele>53</ele>
        <time>2023-10-31T23:53:55Z</time>
      </trkpt>
      <trkpt lat="46.58537" lon="-1.36975">
        <ele>47</ele>
        <time>2023-10-31T23:56:00Z</time>
      </trkpt>
      <trkpt lat="46.58538" lon="-1.36947">
        <ele>46</ele>
        <time>2023-10-31T23:56:26Z</time>
      </trkpt>
      <trkpt lat="46.58535" lon="-1.36921">
        <ele>46</ele>
        <time>2023-10-31T23:56:50Z</time>
      </trkpt>
      <trkpt lat="46.58538" lon="-1.36895">
        <ele>45</ele>
        <time>2023-10-31T23:57:14Z</time>
      </trkpt>
      <trkpt lat="46.5855" lon="-1.36843">
        <ele>44</ele>
        <time>2023-10-31T23:58:04Z</time>
      </trkpt>
      <trkpt lat="46.58559" lon="-1.36818">
        <ele>43</ele>
        <time>2023-10-31T23:58:30Z</time>
      </trkpt>
      <trkpt lat="46.58571" lon="-1.36797">
        <ele>42</ele>
        <time>2023-10-31T23:58:55Z</time>
      </trkpt>
      <trkpt lat="46.58588" lon="-1.3675">
        <ele>40</ele>
        <time>2023-10-31T23:59:44Z</time>
      </trkpt>
      <trkpt lat="46.58592" lon="-1.36696">
        <ele>38</ele>
        <time>2023-11-01T00:00:34Z</time>
      </trkpt>
      <trkpt lat="46.58592" lon="-1.36641">
        <ele>37</ele>
        <time>2023-11-01T00:01:24Z</time>
      </trkpt>
      <trkpt lat="46.586" lon="-1.36586">
        <ele>37</ele>
        <time>2023-11-01T00:02:16Z</time>
      </trkpt>
      <trkpt lat="46.58617" lon="-1.36539">
        <ele>36</ele>
        <time>2023-11-01T00:03:04Z</time>
      </trkpt>
      <trkpt lat="46.58646" lon="-1.3647">
        <ele>34</ele>
        <time>2023-11-01T00:04:19Z</time>
      </trkpt>
      <trkpt lat="46.58632" lon="-1.36452">
        <ele>34</ele>
        <time>2023-11-01T00:04:44Z</time>
      </trkpt>
      <trkpt lat="46.58613" lon="-1.36453">
        <ele>34</ele>
        <time>2023-11-01T00:05:09Z</time>
      </trkpt>
      <trkpt lat="46.58576" lon="-1.3646">
        <ele>35</ele>
        <time>2023-11-01T00:05:59Z</time>
      </trkpt>
      <trkpt lat="46.58539" lon="-1.36471">
        <ele>36</ele>
        <time>2023-11-01T00:06:49Z</time>
      </trkpt>
      <trkpt lat="46.58521" lon="-1.3648">
        <ele>37</ele>
        <time>2023-11-01T00:07:15Z</time>
      </trkpt>
      <trkpt lat="46.58503" lon="-1.36484">
        <ele>37</ele>
        <time>2023-11-01T00:07:39Z</time>
      </trkpt>
      <trkpt lat="46.58485" lon="-1.36482">
        <ele>38</ele>
        <time>2023-11-01T00:08:03Z</time>
      </trkpt>
      <trkpt lat="46.58428" lon="-1.36491">
        <ele>40</ele>
        <time>2023-11-01T00:09:19Z</time>
      </trkpt>
      <trkpt lat="46.58431" lon="-1.36519">
        <ele>41</ele>
        <time>2023-11-01T00:09:45Z</time>
      </trkpt>
      <trkpt lat="46.58418" lon="-1.36469">
        <ele>39</ele>
        <time>2023-11-01T00:10:34Z</time>
      </trkpt>
      <trkpt lat="46.58422" lon="-1.36495">
        <ele>41</ele>
        <time>2023-11-01T00:10:59Z</time>
      </trkpt>
      <trkpt lat="46.58417" lon="-1.36521">
        <ele>42</ele>
        <time>2023-11-01T00:11:24Z</time>
      </trkpt>
      <trkpt lat="46.58404" lon="-1.3654">
        <ele>42</ele>
        <time>2023-11-01T00:11:48Z</time>
      </trkpt>
      <trkpt lat="46.58396" lon="-1.36565">
        <ele>43</ele>
        <time>2023-11-01T00:12:14Z</time>
      </trkpt>
      <trkpt lat="46.58393" lon="-1.36591">
        <ele>44</ele>
        <time>2023-11-01T00:12:38Z</time>
      </trkpt>
      <trkpt lat="46.58373" lon="-1.36636">
        <ele>44</ele>
        <time>2023-11-01T00:13:27Z</time>
      </trkpt>
      <trkpt lat="46.58355" lon="-1.36642">
        <ele>44</ele>
        <time>2023-11-01T00:13:51Z</time>
      </trkpt>
      <trkpt lat="46.58304" lon="-1.36672">
        <ele>43</ele>
        <time>2023-11-01T00:15:05Z</time>
      </trkpt>
      <trkpt lat="46.58286" lon="-1.36673">
        <ele>42</ele>
        <time>2023-11-01T00:15:29Z</time>
      </trkpt>
      <trkpt lat="46.58248" lon="-1.36683">
        <ele>41</ele>
        <time>2023-11-01T00:16:20Z</time>
      </trkpt>
      <trkpt lat="46.58229" lon="-1.36683">
        <ele>40</ele>
        <time>2023-11-01T00:16:46Z</time>
      </trkpt>
      <trkpt lat="46.58195" lon="-1.36701">
        <ele>39</ele>
        <time>2023-11-01T00:17:34Z</time>
      </trkpt>
      <trkpt lat="46.58181" lon="-1.3672">
        <ele>39</ele>
        <time>2023-11-01T00:18:00Z</time>
      </trkpt>
      <trkpt lat="46.58174" lon="-1.36744">
        <ele>40</ele>
        <time>2023-11-01T00:18:24Z</time>
      </trkpt>
      <trkpt lat="46.58171" lon="-1.36771">
        <ele>41</ele>
        <time>2023-11-01T00:18:49Z</time>
      </trkpt>
      <trkpt lat="46.58181" lon="-1.36822">
        <ele>42</ele>
        <time>2023-11-01T00:19:37Z</time>
      </trkpt>
      <trkpt lat="46.58177" lon="-1.36849">
        <ele>43</ele>
        <time>2023-11-01T00:20:03Z</time>
      </trkpt>
      <trkpt lat="46.58169" lon="-1.36873">
        <ele>44</ele>
        <time>2023-11-01T00:20:27Z</time>
      </trkpt>
      <trkpt lat="46.58175" lon="-1.36884">
        <ele>45</ele>
        <time>2023-11-01T00:20:40Z</time>
      </trkpt>
      <trkpt lat="46.58126" lon="-1.36918">
        <ele>48</ele>
        <time>2023-11-01T00:21:52Z</time>
      </trkpt>
      <trkpt lat="46.58112" lon="-1.36935">
        <ele>48</ele>
        <time>2023-11-01T00:22:17Z</time>
      </trkpt>
      <trkpt lat="46.581" lon="-1.36957">
        <ele>49</ele>
        <time>2023-11-01T00:22:43Z</time>
      </trkpt>
      <trkpt lat="46.58086" lon="-1.37006">
        <ele>51</ele>
        <time>2023-11-01T00:23:31Z</time>
      </trkpt>
      <trkpt lat="46.58075" lon="-1.37028">
        <ele>51</ele>
        <time>2023-11-01T00:23:56Z</time>
      </trkpt>
      <trkpt lat="46.58062" lon="-1.37046">
        <ele>52</ele>
        <time>2023-11-01T00:24:20Z</time>
      </trkpt>
      <trkpt lat="46.58045" lon="-1.37058">
        <ele>52</ele>
        <time>2023-11-01T00:24:45Z</time>
      </trkpt>
      <trkpt lat="46.58035" lon="-1.37035">
        <ele>52</ele>
        <time>2023-11-01T00:25:10Z</time>
      </trkpt>
      <trkpt lat="46.57992" lon="-1.36983">
        <ele>53</ele>
        <time>2023-11-01T00:26:25Z</time>
      </trkpt>
      <trkpt lat="46.57974" lon="-1.36991">
        <ele>54</ele>
        <time>2023-11-01T00:26:50Z</time>
      </trkpt>
      <trkpt lat="46.5791" lon="-1.37045">
        <ele>57</ele>
        <time>2023-11-01T00:28:29Z</time>
      </trkpt>
      <trkpt lat="46.57859" lon="-1.37077">
        <ele>57</ele>
        <time>2023-11-01T00:29:43Z</time>
      </trkpt>
      <trkpt lat="46.57826" lon="-1.37103">
        <ele>59</ele>
        <time>2023-11-01T00:30:33Z</time>
      </trkpt>
      <trkpt lat="46.57756" lon="-1.37193">
        <ele>65</ele>
        <time>2023-11-01T00:32:38Z</time>
      </trkpt>
      <trkpt lat="46.57736" lon="-1.37239">
        <ele>67</ele>
        <time>2023-11-01T00:33:28Z</time>
      </trkpt>
      <trkpt lat="46.5771" lon="-1.37277">
        <ele>68</ele>
        <time>2023-11-01T00:34:17Z</time>
      </trkpt>
      <trkpt lat="46.57668" lon="-1.37329">
        <ele>68</ele>
        <time>2023-11-01T00:35:30Z</time>
      </trkpt>
      <trkpt lat="46.57647" lon="-1.37376">
        <ele>67</ele>
        <time>2023-11-01T00:36:22Z</time>
      </trkpt>
      <trkpt lat="46.57634" lon="-1.37394">
        <ele>66</ele>
        <time>2023-11-01T00:36:46Z</time>
      </trkpt>
      <trkpt lat="46.57588" lon="-1.37439">
        <ele>66</ele>
        <time>2023-11-01T00:38:00Z</time>
      </trkpt>
      <trkpt lat="46.57574" lon="-1.37457">
        <ele>65</ele>
        <time>2023-11-01T00:38:25Z</time>
      </trkpt>
      <trkpt lat="46.57552" lon="-1.37501">
        <ele>65</ele>
        <time>2023-11-01T00:39:14Z</time>
      </trkpt>
      <trkpt lat="46.57545" lon="-1.37526">
        <ele>65</ele>
        <time>2023-11-01T00:39:39Z</time>
      </trkpt>
      <trkpt lat="46.57534" lon="-1.37549">
        <ele>64</ele>
        <time>2023-11-01T00:40:05Z</time>
      </trkpt>
      <trkpt lat="46.57481" lon="-1.37576">
        <ele>61</ele>
        <time>2023-11-01T00:41:20Z</time>
      </trkpt>
      <trkpt lat="46.57379" lon="-1.37647">
        <ele>61</ele>
        <time>2023-11-01T00:43:51Z</time>
      </trkpt>
      <trkpt lat="46.57317" lon="-1.37705">
        <ele>64</ele>
        <time>2023-11-01T00:45:29Z</time>
      </trkpt>
      <trkpt lat="46.57284" lon="-1.37728">
        <ele>66</ele>
        <time>2023-11-01T00:46:18Z</time>
      </trkpt>
      <trkpt lat="46.57269" lon="-1.37744">
        <ele>68</ele>
        <time>2023-11-01T00:46:43Z</time>
      </trkpt>
      <trkpt lat="46.5725" lon="-1.37743">
        <ele>69</ele>
        <time>2023-11-01T00:47:08Z</time>
      </trkpt>
      <trkpt lat="46.57213" lon="-1.37735">
        <ele>68</ele>
        <time>2023-11-01T00:47:58Z</time>
      </trkpt>
      <trkpt lat="46.57195" lon="-1.37728">
        <ele>68</ele>
        <time>2023-11-01T00:48:23Z</time>
      </trkpt>
      <trkpt lat="46.57158" lon="-1.37731">
        <ele>68</ele>
        <time>2023-11-01T00:49:12Z</time>
      </trkpt>
      <trkpt lat="46.57128" lon="-1.37763">
        <ele>69</ele>
        <time>2023-11-01T00:50:02Z</time>
      </trkpt>
      <trkpt lat="46.57111" lon="-1.37773">
        <ele>69</ele>
        <time>2023-11-01T00:50:27Z</time>
      </trkpt>
      <trkpt lat="46.57093" lon="-1.37772">
        <ele>69</ele>
        <time>2023-11-01T00:50:51Z</time>
      </trkpt>
      <trkpt lat="46.57022" lon="-1.37736">
        <ele>73</ele>
        <time>2023-11-01T00:52:31Z</time>
      </trkpt>
      <trkpt lat="46.57005" lon="-1.37725">
        <ele>74</ele>
        <time>2023-11-01T00:52:56Z</time>
      </trkpt>
      <trkpt lat="46.56974" lon="-1.37694">
        <ele>75</ele>
        <time>2023-11-01T00:53:46Z</time>
      </trkpt>
      <trkpt lat="46.56941" lon="-1.37667">
        <ele>75</ele>
        <time>2023-11-01T00:54:36Z</time>
      </trkpt>
      <trkpt lat="46.56926" lon="-1.37682">
        <ele>75</ele>
        <time>2023-11-01T00:55:01Z</time>
      </trkpt>
      <trkpt lat="46.56908" lon="-1.37729">
        <ele>76</ele>
        <time>2023-11-01T00:55:50Z</time>
      </trkpt>
      <trkpt lat="46.56881" lon="-1.37765">
        <ele>75</ele>
        <time>2023-11-01T00:56:39Z</time>
      </trkpt>
      <trkpt lat="46.56862" lon="-1.37764">
        <ele>75</ele>
        <time>2023-11-01T00:57:04Z</time>
      </trkpt>
      <trkpt lat="46.56847" lon="-1.37716">
        <ele>74</ele>
        <time>2023-11-01T00:57:53Z</time>
      </trkpt>
      <trkpt lat="46.56836" lon="-1.37693">
        <ele>74</ele>
        <time>2023-11-01T00:58:18Z</time>
      </trkpt>
      <trkpt lat="46.56799" lon="-1.37631">
        <ele>72</ele>
        <time>2023-11-01T00:59:34Z</time>
      </trkpt>
      <trkpt lat="46.56772" lon="-1.37594">
        <ele>72</ele>
        <time>2023-11-01T01:00:23Z</time>
      </trkpt>
      <trkpt lat="46.5676" lon="-1.37573">
        <ele>72</ele>
        <time>2023-11-01T01:00:48Z</time>
      </trkpt>
      <trkpt lat="46.5662" lon="-1.37396">
        <ele>71</ele>
        <time>2023-11-01T01:04:56Z</time>
      </trkpt>
      <trkpt lat="46.56462" lon="-1.37205">
        <ele>69</ele>
        <time>2023-11-01T01:09:30Z</time>
      </trkpt>
      <trkpt lat="46.56417" lon="-1.3716">
        <ele>69</ele>
        <time>2023-11-01T01:10:43Z</time>
      </trkpt>
      <trkpt lat="46.564" lon="-1.37151">
        <ele>69</ele>
        <time>2023-11-01T01:11:07Z</time>
      </trkpt>
      <trkpt lat="46.56394" lon="-1.37126">
        <ele>69</ele>
        <time>2023-11-01T01:11:31Z</time>
      </trkpt>
      <trkpt lat="46.56427" lon="-1.3706">
        <ele>69</ele>
        <time>2023-11-01T01:12:46Z</time>
      </trkpt>
      <trkpt lat="46.56465" lon="-1.36966">
        <ele>71</ele>
        <time>2023-11-01T01:14:26Z</time>
      </trkpt>
      <trkpt lat="46.56472" lon="-1.36941">
        <ele>72</ele>
        <time>2023-11-01T01:14:51Z</time>
      </trkpt>
      <trkpt lat="46.56483" lon="-1.3692">
        <ele>73</ele>
        <time>2023-11-01T01:15:15Z</time>
      </trkpt>
      <trkpt lat="46.56483" lon="-1.36894">
        <ele>73</ele>
        <time>2023-11-01T01:15:39Z</time>
      </trkpt>
      <trkpt lat="46.5651" lon="-1.36823">
        <ele>73</ele>
        <time>2023-11-01T01:16:54Z</time>
      </trkpt>
      <trkpt lat="46.56534" lon="-1.36782">
        <ele>71</ele>
        <time>2023-11-01T01:17:43Z</time>
      </trkpt>
      <trkpt lat="46.56584" lon="-1.36743">
        <ele>71</ele>
        <time>2023-11-01T01:18:59Z</time>
      </trkpt>
      <trkpt lat="46.56599" lon="-1.36726">
        <ele>70</ele>
        <time>2023-11-01T01:19:24Z</time>
      </trkpt>
      <trkpt lat="46.56604" lon="-1.36701">
        <ele>69</ele>
        <time>2023-11-01T01:19:48Z</time>
      </trkpt>
      <trkpt lat="46.56595" lon="-1.3662">
        <ele>69</ele>
        <time>2023-11-01T01:21:03Z</time>
      </trkpt>
      <trkpt lat="46.56596" lon="-1.3654">
        <ele>67</ele>
        <time>2023-11-01T01:22:17Z</time>
      </trkpt>
      <trkpt lat="46.56602" lon="-1.36485">
        <ele>67</ele>
        <time>2023-11-01T01:23:08Z</time>
      </trkpt>
      <trkpt lat="46.56611" lon="-1.36431">
        <ele>67</ele>
        <time>2023-11-01T01:23:59Z</time>
      </trkpt>
      <trkpt lat="46.56616" lon="-1.36349">
        <ele>67</ele>
        <time>2023-11-01T01:25:14Z</time>
      </trkpt>
      <trkpt lat="46.56625" lon="-1.3627">
        <ele>67</ele>
        <time>2023-11-01T01:26:28Z</time>
      </trkpt>
      <trkpt lat="46.56634" lon="-1.36218">
        <ele>66</ele>
        <time>2023-11-01T01:27:17Z</time>
      </trkpt>
      <trkpt lat="46.56639" lon="-1.36164">
        <ele>65</ele>
        <time>2023-11-01T01:28:07Z</time>
      </trkpt>
      <trkpt lat="46.56638" lon="-1.36136">
        <ele>64</ele>
        <time>2023-11-01T01:28:33Z</time>
      </trkpt>
      <trkpt lat="46.56633" lon="-1.36111">
        <ele>63</ele>
        <time>2023-11-01T01:28:56Z</time>
      </trkpt>
      <trkpt lat="46.5661" lon="-1.36035">
        <ele>60</ele>
        <time>2023-11-01T01:30:13Z</time>
      </trkpt>
      <trkpt lat="46.566" lon="-1.35953">
        <ele>58</ele>
        <time>2023-11-01T01:31:29Z</time>
      </trkpt>
      <trkpt lat="46.56603" lon="-1.35926">
        <ele>58</ele>
        <time>2023-11-01T01:31:54Z</time>
      </trkpt>
      <trkpt lat="46.56623" lon="-1.35849">
        <ele>54</ele>
        <time>2023-11-01T01:33:10Z</time>
      </trkpt>
      <trkpt lat="46.56625" lon="-1.35823">
        <ele>54</ele>
        <time>2023-11-01T01:33:34Z</time>
      </trkpt>
      <trkpt lat="46.56611" lon="-1.35805">
        <ele>53</ele>
        <time>2023-11-01T01:33:59Z</time>
      </trkpt>
      <trkpt lat="46.56595" lon="-1.35793">
        <ele>53</ele>
        <time>2023-11-01T01:34:23Z</time>
      </trkpt>
      <trkpt lat="46.56561" lon="-1.35774">
        <ele>50</ele>
        <time>2023-11-01T01:35:11Z</time>
      </trkpt>
      <trkpt lat="46.56545" lon="-1.3576">
        <ele>49</ele>
        <time>2023-11-01T01:35:36Z</time>
      </trkpt>
      <trkpt lat="46.56543" lon="-1.35734">
        <ele>48</ele>
        <time>2023-11-01T01:36:00Z</time>
      </trkpt>
      <trkpt lat="46.56556" lon="-1.35715">
        <ele>48</ele>
        <time>2023-11-01T01:36:25Z</time>
      </trkpt>
      <trkpt lat="46.56566" lon="-1.35692">
        <ele>48</ele>
        <time>2023-11-01T01:36:50Z</time>
      </trkpt>
      <trkpt lat="46.56554" lon="-1.35712">
        <ele>48</ele>
        <time>2023-11-01T01:37:14Z</time>
      </trkpt>
      <trkpt lat="46.56546" lon="-1.35735">
        <ele>48</ele>
        <time>2023-11-01T01:37:38Z</time>
      </trkpt>
      <trkpt lat="46.56528" lon="-1.35739">
        <ele>47</ele>
        <time>2023-11-01T01:38:02Z</time>
      </trkpt>
      <trkpt lat="46.56515" lon="-1.35721">
        <ele>47</ele>
        <time>2023-11-01T01:38:26Z</time>
      </trkpt>
      <trkpt lat="46.56499" lon="-1.35706">
        <ele>46</ele>
        <time>2023-11-01T01:38:51Z</time>
      </trkpt>
      <trkpt lat="46.56465" lon="-1.35682">
        <ele>48</ele>
        <time>2023-11-01T01:39:42Z</time>
      </trkpt>
      <trkpt lat="46.56418" lon="-1.35637">
        <ele>50</ele>
        <time>2023-11-01T01:40:57Z</time>
      </trkpt>
      <trkpt lat="46.56384" lon="-1.35659">
        <ele>52</ele>
        <time>2023-11-01T01:41:47Z</time>
      </trkpt>
      <trkpt lat="46.56285" lon="-1.35731">
        <ele>60</ele>
        <time>2023-11-01T01:44:14Z</time>
      </trkpt>
      <trkpt lat="46.56268" lon="-1.35741">
        <ele>61</ele>
        <time>2023-11-01T01:44:39Z</time>
      </trkpt>
      <trkpt lat="46.56195" lon="-1.3577">
        <ele>62</ele>
        <time>2023-11-01T01:46:20Z</time>
      </trkpt>
      <trkpt lat="46.56177" lon="-1.35768">
        <ele>62</ele>
        <time>2023-11-01T01:46:44Z</time>
      </trkpt>
      <trkpt lat="46.56152" lon="-1.35729">
        <ele>61</ele>
        <time>2023-11-01T01:47:33Z</time>
      </trkpt>
      <trkpt lat="46.56107" lon="-1.3568">
        <ele>60</ele>
        <time>2023-11-01T01:48:48Z</time>
      </trkpt>
      <trkpt lat="46.56091" lon="-1.35666">
        <ele>60</ele>
        <time>2023-11-01T01:49:13Z</time>
      </trkpt>
      <trkpt lat="46.56071" lon="-1.35622">
        <ele>58</ele>
        <time>2023-11-01T01:50:01Z</time>
      </trkpt>
      <trkpt lat="46.56047" lon="-1.35548">
        <ele>55</ele>
        <time>2023-11-01T01:51:16Z</time>
      </trkpt>
      <trkpt lat="46.56035" lon="-1.35526">
        <ele>54</ele>
        <time>2023-11-01T01:51:42Z</time>
      </trkpt>
      <trkpt lat="46.56031" lon="-1.355">
        <ele>52</ele>
        <time>2023-11-01T01:52:06Z</time>
      </trkpt>
      <trkpt lat="46.56027" lon="-1.35421">
        <ele>51</ele>
        <time>2023-11-01T01:53:19Z</time>
      </trkpt>
      <trkpt lat="46.56021" lon="-1.35396">
        <ele>50</ele>
        <time>2023-11-01T01:53:43Z</time>
      </trkpt>
      <trkpt lat="46.5599" lon="-1.35328">
        <ele>48</ele>
        <time>2023-11-01T01:54:58Z</time>
      </trkpt>
      <trkpt lat="46.55978" lon="-1.35307">
        <ele>48</ele>
        <time>2023-11-01T01:55:23Z</time>
      </trkpt>
      <trkpt lat="46.55958" lon="-1.3526">
        <ele>46</ele>
        <time>2023-11-01T01:56:14Z</time>
      </trkpt>
      <trkpt lat="46.55923" lon="-1.35197">
        <ele>45</ele>
        <time>2023-11-01T01:57:28Z</time>
      </trkpt>
      <trkpt lat="46.55895" lon="-1.3516">
        <ele>44</ele>
        <time>2023-11-01T01:58:19Z</time>
      </trkpt>
      <trkpt lat="46.55815" lon="-1.35086">
        <ele>41</ele>
        <time>2023-11-01T02:00:25Z</time>
      </trkpt>
      <trkpt lat="46.55799" lon="-1.35073">
        <ele>39</ele>
        <time>2023-11-01T02:00:50Z</time>
      </trkpt>
      <trkpt lat="46.55782" lon="-1.35063">
        <ele>38</ele>
        <time>2023-11-01T02:01:14Z</time>
      </trkpt>
      <trkpt lat="46.55786" lon="-1.35037">
        <ele>37</ele>
        <time>2023-11-01T02:01:39Z</time>
      </trkpt>
      <trkpt lat="46.55858" lon="-1.34949">
        <ele>31</ele>
        <time>2023-11-01T02:03:44Z</time>
      </trkpt>
      <trkpt lat="46.5587" lon="-1.34927">
        <ele>29</ele>
        <time>2023-11-01T02:04:10Z</time>
      </trkpt>
      <trkpt lat="46.55879" lon="-1.34903">
        <ele>28</ele>
        <time>2023-11-01T02:04:35Z</time>
      </trkpt>
      <trkpt lat="46.55884" lon="-1.34849">
        <ele>26</ele>
        <time>2023-11-01T02:05:25Z</time>
      </trkpt>
      <trkpt lat="46.55872" lon="-1.34797">
        <ele>27</ele>
        <time>2023-11-01T02:06:15Z</time>
      </trkpt>
      <trkpt lat="46.55879" lon="-1.34744">
        <ele>28</ele>
        <time>2023-11-01T02:07:05Z</time>
      </trkpt>
      <trkpt lat="46.55894" lon="-1.34729">
        <ele>30</ele>
        <time>2023-11-01T02:07:29Z</time>
      </trkpt>
      <trkpt lat="46.55929" lon="-1.34745">
        <ele>30</ele>
        <time>2023-11-01T02:08:18Z</time>
      </trkpt>
      <trkpt lat="46.55945" lon="-1.34757">
        <ele>29</ele>
        <time>2023-11-01T02:08:42Z</time>
      </trkpt>
      <trkpt lat="46.5595" lon="-1.34783">
        <ele>28</ele>
        <time>2023-11-01T02:09:07Z</time>
      </trkpt>
      <trkpt lat="46.55972" lon="-1.34825">
        <ele>26</ele>
        <time>2023-11-01T02:09:55Z</time>
      </trkpt>
      <trkpt lat="46.5603" lon="-1.3489">
        <ele>27</ele>
        <time>2023-11-01T02:11:33Z</time>
      </trkpt>
      <trkpt lat="46.56078" lon="-1.34933">
        <ele>27</ele>
        <time>2023-11-01T02:12:48Z</time>
      </trkpt>
      <trkpt lat="46.56146" lon="-1.34976">
        <ele>27</ele>
        <time>2023-11-01T02:14:27Z</time>
      </trkpt>
      <trkpt lat="46.56182" lon="-1.34987">
        <ele>28</ele>
        <time>2023-11-01T02:15:16Z</time>
      </trkpt>
      <trkpt lat="46.56201" lon="-1.34987">
        <ele>29</ele>
        <time>2023-11-01T02:15:42Z</time>
      </trkpt>
      <trkpt lat="46.56235" lon="-1.34968">
        <ele>32</ele>
        <time>2023-11-01T02:16:30Z</time>
      </trkpt>
      <trkpt lat="46.56245" lon="-1.34946">
        <ele>32</ele>
        <time>2023-11-01T02:16:54Z</time>
      </trkpt>
      <trkpt lat="46.5626" lon="-1.34898">
        <ele>34</ele>
        <time>2023-11-01T02:17:43Z</time>
      </trkpt>
      <trkpt lat="46.56264" lon="-1.34871">
        <ele>35</ele>
        <time>2023-11-01T02:18:08Z</time>
      </trkpt>
      <trkpt lat="46.56271" lon="-1.34847">
        <ele>37</ele>
        <time>2023-11-01T02:18:32Z</time>
      </trkpt>
      <trkpt lat="46.56298" lon="-1.34809">
        <ele>38</ele>
        <time>2023-11-01T02:19:22Z</time>
      </trkpt>
      <trkpt lat="46.56374" lon="-1.34729">
        <ele>40</ele>
        <time>2023-11-01T02:21:27Z</time>
      </trkpt>
      <trkpt lat="46.56391" lon="-1.34721">
        <ele>40</ele>
        <time>2023-11-01T02:21:51Z</time>
      </trkpt>
      <trkpt lat="46.56407" lon="-1.34734">
        <ele>40</ele>
        <time>2023-11-01T02:22:16Z</time>
      </trkpt>
      <trkpt lat="46.56444" lon="-1.34795">
        <ele>41</ele>
        <time>2023-11-01T02:23:30Z</time>
      </trkpt>
      <trkpt lat="46.56471" lon="-1.3483">
        <ele>41</ele>
        <time>2023-11-01T02:24:19Z</time>
      </trkpt>
      <trkpt lat="46.56527" lon="-1.34848">
        <ele>41</ele>
        <time>2023-11-01T02:25:35Z</time>
      </trkpt>
      <trkpt lat="46.56543" lon="-1.3486">
        <ele>41</ele>
        <time>2023-11-01T02:25:59Z</time>
      </trkpt>
      <trkpt lat="46.56586" lon="-1.34912">
        <ele>41</ele>
        <time>2023-11-01T02:27:14Z</time>
      </trkpt>
      <trkpt lat="46.56599" lon="-1.34931">
        <ele>40</ele>
        <time>2023-11-01T02:27:38Z</time>
      </trkpt>
      <trkpt lat="46.56614" lon="-1.34948">
        <ele>39</ele>
        <time>2023-11-01T02:28:04Z</time>
      </trkpt>
      <trkpt lat="46.5663" lon="-1.34961">
        <ele>38</ele>
        <time>2023-11-01T02:28:28Z</time>
      </trkpt>
      <trkpt lat="46.56647" lon="-1.34968">
        <ele>38</ele>
        <time>2023-11-01T02:28:52Z</time>
      </trkpt>
      <trkpt lat="46.56683" lon="-1.34958">
        <ele>39</ele>
        <time>2023-11-01T02:29:41Z</time>
      </trkpt>
      <trkpt lat="46.56701" lon="-1.3496">
        <ele>38</ele>
        <time>2023-11-01T02:30:05Z</time>
      </trkpt>
      <trkpt lat="46.56719" lon="-1.34968">
        <ele>37</ele>
        <time>2023-11-01T02:30:30Z</time>
      </trkpt>
      <trkpt lat="46.56729" lon="-1.34991">
        <ele>35</ele>
        <time>2023-11-01T02:30:55Z</time>
      </trkpt>
      <trkpt lat="46.56747" lon="-1.34998">
        <ele>33</ele>
        <time>2023-11-01T02:31:20Z</time>
      </trkpt>
      <trkpt lat="46.5676" lon="-1.35019">
        <ele>32</ele>
        <time>2023-11-01T02:31:46Z</time>
      </trkpt>
      <trkpt lat="46.5677" lon="-1.3504">
        <ele>31</ele>
        <time>2023-11-01T02:32:09Z</time>
      </trkpt>
      <trkpt lat="46.56776" lon="-1.35066">
        <ele>30</ele>
        <time>2023-11-01T02:32:34Z</time>
      </trkpt>
      <trkpt lat="46.56786" lon="-1.35089">
        <ele>30</ele>
        <time>2023-11-01T02:32:59Z</time>
      </trkpt>
      <trkpt lat="46.568" lon="-1.35106">
        <ele>31</ele>
        <time>2023-11-01T02:33:24Z</time>
      </trkpt>
      <trkpt lat="46.56819" lon="-1.35109">
        <ele>32</ele>
        <time>2023-11-01T02:33:49Z</time>
      </trkpt>
      <trkpt lat="46.56835" lon="-1.35124">
        <ele>33</ele>
        <time>2023-11-01T02:34:15Z</time>
      </trkpt>
      <trkpt lat="46.56852" lon="-1.35135">
        <ele>35</ele>
        <time>2023-11-01T02:34:39Z</time>
      </trkpt>
      <trkpt lat="46.56866" lon="-1.35118">
        <ele>36</ele>
        <time>2023-11-01T02:35:04Z</time>
      </trkpt>
      <trkpt lat="46.56883" lon="-1.35125">
        <ele>38</ele>
        <time>2023-11-01T02:35:27Z</time>
      </trkpt>
      <trkpt lat="46.56911" lon="-1.35194">
        <ele>41</ele>
        <time>2023-11-01T02:36:41Z</time>
      </trkpt>
      <trkpt lat="46.5691" lon="-1.35222">
        <ele>40</ele>
        <time>2023-11-01T02:37:06Z</time>
      </trkpt>
      <trkpt lat="46.56912" lon="-1.35249">
        <ele>40</ele>
        <time>2023-11-01T02:37:31Z</time>
      </trkpt>
      <trkpt lat="46.56934" lon="-1.35292">
        <ele>40</ele>
        <time>2023-11-01T02:38:21Z</time>
      </trkpt>
      <trkpt lat="46.56951" lon="-1.35338">
        <ele>40</ele>
        <time>2023-11-01T02:39:08Z</time>
      </trkpt>
      <trkpt lat="46.56969" lon="-1.35341">
        <ele>42</ele>
        <time>2023-11-01T02:39:33Z</time>
      </trkpt>
      <trkpt lat="46.57034" lon="-1.35289">
        <ele>44</ele>
        <time>2023-11-01T02:41:12Z</time>
      </trkpt>
      <trkpt lat="46.57068" lon="-1.35267">
        <ele>44</ele>
        <time>2023-11-01T02:42:01Z</time>
      </trkpt>
      <trkpt lat="46.57086" lon="-1.35259">
        <ele>44</ele>
        <time>2023-11-01T02:42:26Z</time>
      </trkpt>
      <trkpt lat="46.57104" lon="-1.35253">
        <ele>44</ele>
        <time>2023-11-01T02:42:51Z</time>
      </trkpt>
      <trkpt lat="46.57142" lon="-1.35247">
        <ele>45</ele>
        <time>2023-11-01T02:43:42Z</time>
      </trkpt>
      <trkpt lat="46.57159" lon="-1.35252">
        <ele>45</ele>
        <time>2023-11-01T02:44:05Z</time>
      </trkpt>
      <trkpt lat="46.57173" lon="-1.35329">
        <ele>46</ele>
        <time>2023-11-01T02:45:18Z</time>
      </trkpt>
      <trkpt lat="46.57181" lon="-1.35354">
        <ele>46</ele>
        <time>2023-11-01T02:45:44Z</time>
      </trkpt>
      <trkpt lat="46.57193" lon="-1.35375">
        <ele>46</ele>
        <time>2023-11-01T02:46:09Z</time>
      </trkpt>
      <trkpt lat="46.57198" lon="-1.35456">
        <ele>45</ele>
        <time>2023-11-01T02:47:23Z</time>
      </trkpt>
      <trkpt lat="46.57208" lon="-1.35483">
        <ele>43</ele>
        <time>2023-11-01T02:47:51Z</time>
      </trkpt>
      <trkpt lat="46.5721" lon="-1.3551">
        <ele>41</ele>
        <time>2023-11-01T02:48:16Z</time>
      </trkpt>
      <trkpt lat="46.57222" lon="-1.3553">
        <ele>38</ele>
        <time>2023-11-01T02:48:41Z</time>
      </trkpt>
      <trkpt lat="46.57241" lon="-1.35531">
        <ele>38</ele>
        <time>2023-11-01T02:49:06Z</time>
      </trkpt>
      <trkpt lat="46.5726" lon="-1.35537">
        <ele>36</ele>
        <time>2023-11-01T02:49:32Z</time>
      </trkpt>
      <trkpt lat="46.57279" lon="-1.35538">
        <ele>35</ele>
        <time>2023-11-01T02:49:57Z</time>
      </trkpt>
      <trkpt lat="46.57316" lon="-1.35531">
        <ele>34</ele>
        <time>2023-11-01T02:50:47Z</time>
      </trkpt>
      <trkpt lat="46.57334" lon="-1.3552">
        <ele>33</ele>
        <time>2023-11-01T02:51:13Z</time>
      </trkpt>
      <trkpt lat="46.57408" lon="-1.35439">
        <ele>36</ele>
        <time>2023-11-01T02:53:17Z</time>
      </trkpt>
      <trkpt lat="46.57457" lon="-1.35402">
        <ele>37</ele>
        <time>2023-11-01T02:54:30Z</time>
      </trkpt>
      <trkpt lat="46.57475" lon="-1.35398">
        <ele>36</ele>
        <time>2023-11-01T02:54:55Z</time>
      </trkpt>
      <trkpt lat="46.57494" lon="-1.35397">
        <ele>34</ele>
        <time>2023-11-01T02:55:20Z</time>
      </trkpt>
      <trkpt lat="46.57512" lon="-1.35388">
        <ele>35</ele>
        <time>2023-11-01T02:55:46Z</time>
      </trkpt>
      <trkpt lat="46.57567" lon="-1.35368">
        <ele>36</ele>
        <time>2023-11-01T02:57:01Z</time>
      </trkpt>
      <trkpt lat="46.57585" lon="-1.35368">
        <ele>36</ele>
        <time>2023-11-01T02:57:25Z</time>
      </trkpt>
      <trkpt lat="46.57602" lon="-1.35379">
        <ele>36</ele>
        <time>2023-11-01T02:57:50Z</time>
      </trkpt>
      <trkpt lat="46.57619" lon="-1.35386">
        <ele>36</ele>
        <time>2023-11-01T02:58:14Z</time>
      </trkpt>
      <trkpt lat="46.5765" lon="-1.35418">
        <ele>34</ele>
        <time>2023-11-01T02:59:04Z</time>
      </trkpt>
      <trkpt lat="46.57676" lon="-1.35459">
        <ele>34</ele>
        <time>2023-11-01T02:59:55Z</time>
      </trkpt>
      <trkpt lat="46.57694" lon="-1.35456">
        <ele>36</ele>
        <time>2023-11-01T03:00:20Z</time>
      </trkpt>
      <trkpt lat="46.5772" lon="-1.35418">
        <ele>42</ele>
        <time>2023-11-01T03:01:09Z</time>
      </trkpt>
      <trkpt lat="46.57738" lon="-1.35421">
        <ele>44</ele>
        <time>2023-11-01T03:01:33Z</time>
      </trkpt>
      <trkpt lat="46.57755" lon="-1.3541">
        <ele>46</ele>
        <time>2023-11-01T03:01:58Z</time>
      </trkpt>
      <trkpt lat="46.57766" lon="-1.35389">
        <ele>48</ele>
        <time>2023-11-01T03:02:22Z</time>
      </trkpt>
      <trkpt lat="46.57782" lon="-1.35377">
        <ele>49</ele>
        <time>2023-11-01T03:02:46Z</time>
      </trkpt>
      <trkpt lat="46.57817" lon="-1.35391">
        <ele>50</ele>
        <time>2023-11-01T03:03:35Z</time>
      </trkpt>
      <trkpt lat="46.57828" lon="-1.35413">
        <ele>50</ele>
        <time>2023-11-01T03:03:59Z</time>
      </trkpt>
      <trkpt lat="46.57817" lon="-1.35467">
        <ele>47</ele>
        <time>2023-11-01T03:04:51Z</time>
      </trkpt>
      <trkpt lat="46.57817" lon="-1.35494">
        <ele>46</ele>
        <time>2023-11-01T03:05:16Z</time>
      </trkpt>
      <trkpt lat="46.57821" lon="-1.3552">
        <ele>45</ele>
        <time>2023-11-01T03:05:40Z</time>
      </trkpt>
      <trkpt lat="46.57837" lon="-1.35569">
        <ele>42</ele>
        <time>2023-11-01T03:06:30Z</time>
      </trkpt>
      <trkpt lat="46.57847" lon="-1.35591">
        <ele>42</ele>
        <time>2023-11-01T03:06:54Z</time>
      </trkpt>
      <trkpt lat="46.57852" lon="-1.35616">
        <ele>41</ele>
        <time>2023-11-01T03:07:18Z</time>
      </trkpt>
      <trkpt lat="46.57867" lon="-1.35665">
        <ele>41</ele>
        <time>2023-11-01T03:08:07Z</time>
      </trkpt>
      <trkpt lat="46.57871" lon="-1.35692">
        <ele>41</ele>
        <time>2023-11-01T03:08:33Z</time>
      </trkpt>
      <trkpt lat="46.57858" lon="-1.35742">
        <ele>39</ele>
        <time>2023-11-01T03:09:22Z</time>
      </trkpt>
      <trkpt lat="46.57834" lon="-1.35816">
        <ele>36</ele>
        <time>2023-11-01T03:10:37Z</time>
      </trkpt>
      <trkpt lat="46.57845" lon="-1.35867">
        <ele>35</ele>
        <time>2023-11-01T03:11:26Z</time>
      </trkpt>
      <trkpt lat="46.57845" lon="-1.35894">
        <ele>34</ele>
        <time>2023-11-01T03:11:51Z</time>
      </trkpt>
      <trkpt lat="46.57854" lon="-1.35917">
        <ele>34</ele>
        <time>2023-11-01T03:12:15Z</time>
      </trkpt>
      <trkpt lat="46.57867" lon="-1.35936">
        <ele>34</ele>
        <time>2023-11-01T03:12:39Z</time>
      </trkpt>
      <trkpt lat="46.57878" lon="-1.35958">
        <ele>35</ele>
        <time>2023-11-01T03:13:04Z</time>
      </trkpt>
      <trkpt lat="46.57905" lon="-1.3603">
        <ele>37</ele>
        <time>2023-11-01T03:14:20Z</time>
      </trkpt>
      <trkpt lat="46.57939" lon="-1.36095">
        <ele>42</ele>
        <time>2023-11-01T03:15:35Z</time>
      </trkpt>
      <trkpt lat="46.57948" lon="-1.3612">
        <ele>42</ele>
        <time>2023-11-01T03:16:00Z</time>
      </trkpt>
      <trkpt lat="46.58017" lon="-1.3621">
        <ele>43</ele>
        <time>2023-11-01T03:18:04Z</time>
      </trkpt>
      <trkpt lat="46.58047" lon="-1.36243">
        <ele>42</ele>
        <time>2023-11-01T03:18:54Z</time>
      </trkpt>
      <trkpt lat="46.58064" lon="-1.36254">
        <ele>41</ele>
        <time>2023-11-01T03:19:19Z</time>
      </trkpt>
      <trkpt lat="46.58082" lon="-1.36262">
        <ele>40</ele>
        <time>2023-11-01T03:19:44Z</time>
      </trkpt>
      <trkpt lat="46.58138" lon="-1.36272">
        <ele>36</ele>
        <time>2023-11-01T03:21:00Z</time>
      </trkpt>
      <trkpt lat="46.58174" lon="-1.36264">
        <ele>35</ele>
        <time>2023-11-01T03:21:48Z</time>
      </trkpt>
      <trkpt lat="46.58186" lon="-1.3624">
        <ele>36</ele>
        <time>2023-11-01T03:22:15Z</time>
      </trkpt>
      <trkpt lat="46.58189" lon="-1.36186">
        <ele>40</ele>
        <time>2023-11-01T03:23:05Z</time>
      </trkpt>
      <trkpt lat="46.58197" lon="-1.36163">
        <ele>40</ele>
        <time>2023-11-01T03:23:29Z</time>
      </trkpt>
      <trkpt lat="46.58215" lon="-1.36157">
        <ele>37</ele>
        <time>2023-11-01T03:23:53Z</time>
      </trkpt>
      <trkpt lat="46.58218" lon="-1.36183">
        <ele>35</ele>
        <time>2023-11-01T03:24:18Z</time>
      </trkpt>
      <trkpt lat="46.58226" lon="-1.36208">
        <ele>33</ele>
        <time>2023-11-01T03:24:43Z</time>
      </trkpt>
      <trkpt lat="46.58228" lon="-1.36234">
        <ele>33</ele>
        <time>2023-11-01T03:25:07Z</time>
      </trkpt>
      <trkpt lat="46.58252" lon="-1.36307">
        <ele>31</ele>
        <time>2023-11-01T03:26:21Z</time>
      </trkpt>
      <trkpt lat="46.58258" lon="-1.36334">
        <ele>31</ele>
        <time>2023-11-01T03:26:47Z</time>
      </trkpt>
      <trkpt lat="46.58289" lon="-1.36403">
        <ele>33</ele>
        <time>2023-11-01T03:28:03Z</time>
      </trkpt>
      <trkpt lat="46.58316" lon="-1.36441">
        <ele>35</ele>
        <time>2023-11-01T03:28:53Z</time>
      </trkpt>
      <trkpt lat="46.58348" lon="-1.36469">
        <ele>37</ele>
        <time>2023-11-01T03:29:43Z</time>
      </trkpt>
      <trkpt lat="46.58375" lon="-1.36504">
        <ele>40</ele>
        <time>2023-11-01T03:30:31Z</time>
      </trkpt>
      <trkpt lat="46.58394" lon="-1.36508">
        <ele>41</ele>
        <time>2023-11-01T03:30:57Z</time>
      </trkpt>
      <trkpt lat="46.58411" lon="-1.36492">
        <ele>40</ele>
        <time>2023-11-01T03:31:24Z</time>
      </trkpt>
      <trkpt lat="46.58417" lon="-1.36466">
        <ele>39</ele>
        <time>2023-11-01T03:31:49Z</time>
      </trkpt>
    </trkseg>
  </trk>
  <trk>
    <name><![CDATA[ChailleO_BouclesYonSud_18.5km-8111388]]></name>
    <extensions>
      <line xmlns="http://www.topografix.com/GPX/gpx_style/0/2">
        <color>00FF00</color>
        <width>4</width>
      </line>
    </extensions>
    <trkseg>
      <trkpt lat="46.58388" lon="-1.36535">
        <ele>42</ele>
        <time>2023-10-31T20:58:23Z</time>
      </trkpt>
      <trkpt lat="46.58355" lon="-1.36659">
        <ele>45</ele>
        <time>2023-10-31T21:00:25Z</time>
      </trkpt>
      <trkpt lat="46.58178" lon="-1.36715">
        <ele>39</ele>
        <time>2023-10-31T21:04:27Z</time>
      </trkpt>
      <trkpt lat="46.58051" lon="-1.37067">
        <ele>52</ele>
        <time>2023-10-31T21:10:31Z</time>
      </trkpt>
      <trkpt lat="46.57995" lon="-1.36985">
        <ele>53</ele>
        <time>2023-10-31T21:12:17Z</time>
      </trkpt>
      <trkpt lat="46.57845" lon="-1.37084">
        <ele>58</ele>
        <time>2023-10-31T21:15:57Z</time>
      </trkpt>
      <trkpt lat="46.57641" lon="-1.3738">
        <ele>67</ele>
        <time>2023-10-31T21:22:22Z</time>
      </trkpt>
      <trkpt lat="46.57538" lon="-1.37539">
        <ele>64</ele>
        <time>2023-10-31T21:25:42Z</time>
      </trkpt>
      <trkpt lat="46.57273" lon="-1.37741">
        <ele>67</ele>
        <time>2023-10-31T21:32:21Z</time>
      </trkpt>
      <trkpt lat="46.57169" lon="-1.37724">
        <ele>67</ele>
        <time>2023-10-31T21:34:41Z</time>
      </trkpt>
      <trkpt lat="46.57101" lon="-1.37784">
        <ele>69</ele>
        <time>2023-10-31T21:36:27Z</time>
      </trkpt>
      <trkpt lat="46.56942" lon="-1.37655">
        <ele>75</ele>
        <time>2023-10-31T21:40:30Z</time>
      </trkpt>
      <trkpt lat="46.56871" lon="-1.37788">
        <ele>75</ele>
        <time>2023-10-31T21:43:05Z</time>
      </trkpt>
      <trkpt lat="46.56405" lon="-1.37144">
        <ele>69</ele>
        <time>2023-10-31T21:57:22Z</time>
      </trkpt>
      <trkpt lat="46.5647" lon="-1.36908">
        <ele>72</ele>
        <time>2023-10-31T22:01:16Z</time>
      </trkpt>
      <trkpt lat="46.56606" lon="-1.36732">
        <ele>69</ele>
        <time>2023-10-31T22:05:18Z</time>
      </trkpt>
      <trkpt lat="46.56629" lon="-1.36144">
        <ele>64</ele>
        <time>2023-10-31T22:14:19Z</time>
      </trkpt>
      <trkpt lat="46.56594" lon="-1.35943">
        <ele>59</ele>
        <time>2023-10-31T22:17:29Z</time>
      </trkpt>
      <trkpt lat="46.56626" lon="-1.35814">
        <ele>53</ele>
        <time>2023-10-31T22:19:35Z</time>
      </trkpt>
      <trkpt lat="46.56429" lon="-1.35621">
        <ele>50</ele>
        <time>2023-10-31T22:24:52Z</time>
      </trkpt>
      <trkpt lat="46.56187" lon="-1.35775">
        <ele>62</ele>
        <time>2023-10-31T22:30:44Z</time>
      </trkpt>
      <trkpt lat="46.56072" lon="-1.35616">
        <ele>58</ele>
        <time>2023-10-31T22:34:16Z</time>
      </trkpt>
      <trkpt lat="46.56025" lon="-1.35398">
        <ele>50</ele>
        <time>2023-10-31T22:37:46Z</time>
      </trkpt>
      <trkpt lat="46.55921" lon="-1.35166">
        <ele>45</ele>
        <time>2023-10-31T22:42:00Z</time>
      </trkpt>
      <trkpt lat="46.55791" lon="-1.35067">
        <ele>38</ele>
        <time>2023-10-31T22:45:16Z</time>
      </trkpt>
      <trkpt lat="46.5567" lon="-1.35007">
        <ele>40</ele>
        <time>2023-10-31T22:48:06Z</time>
      </trkpt>
      <trkpt lat="46.55496" lon="-1.35204">
        <ele>50</ele>
        <time>2023-10-31T22:53:01Z</time>
      </trkpt>
      <trkpt lat="46.55358" lon="-1.35256">
        <ele>56</ele>
        <time>2023-10-31T22:56:11Z</time>
      </trkpt>
      <trkpt lat="46.5521" lon="-1.35204">
        <ele>55</ele>
        <time>2023-10-31T22:59:34Z</time>
      </trkpt>
      <trkpt lat="46.55142" lon="-1.35432">
        <ele>59</ele>
        <time>2023-10-31T23:03:22Z</time>
      </trkpt>
      <trkpt lat="46.55042" lon="-1.3541">
        <ele>61</ele>
        <time>2023-10-31T23:05:37Z</time>
      </trkpt>
      <trkpt lat="46.55054" lon="-1.35312">
        <ele>60</ele>
        <time>2023-10-31T23:07:08Z</time>
      </trkpt>
      <trkpt lat="46.54938" lon="-1.35179">
        <ele>61</ele>
        <time>2023-10-31T23:10:25Z</time>
      </trkpt>
      <trkpt lat="46.54756" lon="-1.35209">
        <ele>63</ele>
        <time>2023-10-31T23:14:30Z</time>
      </trkpt>
      <trkpt lat="46.5457" lon="-1.35144">
        <ele>57</ele>
        <time>2023-10-31T23:18:45Z</time>
      </trkpt>
      <trkpt lat="46.54478" lon="-1.35595">
        <ele>55</ele>
        <time>2023-10-31T23:25:57Z</time>
      </trkpt>
      <trkpt lat="46.54047" lon="-1.35496">
        <ele>58</ele>
        <time>2023-10-31T23:35:39Z</time>
      </trkpt>
      <trkpt lat="46.53829" lon="-1.35209">
        <ele>62</ele>
        <time>2023-10-31T23:42:12Z</time>
      </trkpt>
      <trkpt lat="46.5374" lon="-1.35003">
        <ele>60</ele>
        <time>2023-10-31T23:45:55Z</time>
      </trkpt>
      <trkpt lat="46.53684" lon="-1.3481">
        <ele>61</ele>
        <time>2023-10-31T23:49:07Z</time>
      </trkpt>
      <trkpt lat="46.53613" lon="-1.34617">
        <ele>63</ele>
        <time>2023-10-31T23:52:28Z</time>
      </trkpt>
      <trkpt lat="46.53528" lon="-1.34423">
        <ele>61</ele>
        <time>2023-10-31T23:55:59Z</time>
      </trkpt>
      <trkpt lat="46.53412" lon="-1.34363">
        <ele>55</ele>
        <time>2023-10-31T23:58:44Z</time>
      </trkpt>
      <trkpt lat="46.53294" lon="-1.3423">
        <ele>38</ele>
        <time>2023-11-01T00:02:03Z</time>
      </trkpt>
      <trkpt lat="46.53306" lon="-1.3405">
        <ele>36</ele>
        <time>2023-11-01T00:04:49Z</time>
      </trkpt>
      <trkpt lat="46.53315" lon="-1.33904">
        <ele>36</ele>
        <time>2023-11-01T00:07:03Z</time>
      </trkpt>
      <trkpt lat="46.53271" lon="-1.33801">
        <ele>36</ele>
        <time>2023-11-01T00:08:55Z</time>
      </trkpt>
      <trkpt lat="46.53398" lon="-1.33677">
        <ele>29</ele>
        <time>2023-11-01T00:12:19Z</time>
      </trkpt>
      <trkpt lat="46.53516" lon="-1.33574">
        <ele>25</ele>
        <time>2023-11-01T00:15:23Z</time>
      </trkpt>
      <trkpt lat="46.53587" lon="-1.33436">
        <ele>20</ele>
        <time>2023-11-01T00:18:01Z</time>
      </trkpt>
      <trkpt lat="46.53708" lon="-1.33526">
        <ele>22</ele>
        <time>2023-11-01T00:21:02Z</time>
      </trkpt>
      <trkpt lat="46.53808" lon="-1.33526">
        <ele>22</ele>
        <time>2023-11-01T00:23:16Z</time>
      </trkpt>
      <trkpt lat="46.54047" lon="-1.33149">
        <ele>14</ele>
        <time>2023-11-01T00:31:06Z</time>
      </trkpt>
      <trkpt lat="46.54159" lon="-1.33192">
        <ele>17</ele>
        <time>2023-11-01T00:33:41Z</time>
      </trkpt>
      <trkpt lat="46.54195" lon="-1.33278">
        <ele>24</ele>
        <time>2023-11-01T00:35:13Z</time>
      </trkpt>
      <trkpt lat="46.5428" lon="-1.33342">
        <ele>28</ele>
        <time>2023-11-01T00:37:21Z</time>
      </trkpt>
      <trkpt lat="46.54363" lon="-1.33342">
        <ele>25</ele>
        <time>2023-11-01T00:39:12Z</time>
      </trkpt>
      <trkpt lat="46.54404" lon="-1.33539">
        <ele>38</ele>
        <time>2023-11-01T00:42:21Z</time>
      </trkpt>
      <trkpt lat="46.54475" lon="-1.33591">
        <ele>32</ele>
        <time>2023-11-01T00:44:07Z</time>
      </trkpt>
      <trkpt lat="46.54443" lon="-1.33638">
        <ele>36</ele>
        <time>2023-11-01T00:45:07Z</time>
      </trkpt>
      <trkpt lat="46.5449" lon="-1.33728">
        <ele>36</ele>
        <time>2023-11-01T00:46:51Z</time>
      </trkpt>
      <trkpt lat="46.54431" lon="-1.3381">
        <ele>35</ele>
        <time>2023-11-01T00:48:40Z</time>
      </trkpt>
      <trkpt lat="46.54534" lon="-1.33823">
        <ele>35</ele>
        <time>2023-11-01T00:50:58Z</time>
      </trkpt>
      <trkpt lat="46.54611" lon="-1.33926">
        <ele>27</ele>
        <time>2023-11-01T00:53:18Z</time>
      </trkpt>
      <trkpt lat="46.54643" lon="-1.34016">
        <ele>28</ele>
        <time>2023-11-01T00:54:51Z</time>
      </trkpt>
      <trkpt lat="46.54729" lon="-1.34106">
        <ele>25</ele>
        <time>2023-11-01T00:57:12Z</time>
      </trkpt>
      <trkpt lat="46.54593" lon="-1.34235">
        <ele>40</ele>
        <time>2023-11-01T01:00:49Z</time>
      </trkpt>
      <trkpt lat="46.54732" lon="-1.34072">
        <ele>23</ele>
        <time>2023-11-01T01:04:47Z</time>
      </trkpt>
      <trkpt lat="46.54602" lon="-1.3396">
        <ele>29</ele>
        <time>2023-11-01T01:08:09Z</time>
      </trkpt>
      <trkpt lat="46.54658" lon="-1.33891">
        <ele>20</ele>
        <time>2023-11-01T01:09:47Z</time>
      </trkpt>
      <trkpt lat="46.54735" lon="-1.34011">
        <ele>21</ele>
        <time>2023-11-01T01:12:17Z</time>
      </trkpt>
      <trkpt lat="46.54832" lon="-1.34084">
        <ele>20</ele>
        <time>2023-11-01T01:14:43Z</time>
      </trkpt>
      <trkpt lat="46.54903" lon="-1.34144">
        <ele>24</ele>
        <time>2023-11-01T01:16:33Z</time>
      </trkpt>
      <trkpt lat="46.55181" lon="-1.34123">
        <ele>27</ele>
        <time>2023-11-01T01:22:44Z</time>
      </trkpt>
      <trkpt lat="46.55266" lon="-1.34123">
        <ele>28</ele>
        <time>2023-11-01T01:24:38Z</time>
      </trkpt>
      <trkpt lat="46.55411" lon="-1.3408">
        <ele>38</ele>
        <time>2023-11-01T01:27:55Z</time>
      </trkpt>
      <trkpt lat="46.55384" lon="-1.34179">
        <ele>29</ele>
        <time>2023-11-01T01:29:33Z</time>
      </trkpt>
      <trkpt lat="46.55529" lon="-1.34278">
        <ele>27</ele>
        <time>2023-11-01T01:33:07Z</time>
      </trkpt>
      <trkpt lat="46.55582" lon="-1.34235">
        <ele>33</ele>
        <time>2023-11-01T01:34:27Z</time>
      </trkpt>
      <trkpt lat="46.55688" lon="-1.3426">
        <ele>36</ele>
        <time>2023-11-01T01:36:51Z</time>
      </trkpt>
      <trkpt lat="46.55771" lon="-1.34393">
        <ele>36</ele>
        <time>2023-11-01T01:39:36Z</time>
      </trkpt>
      <trkpt lat="46.55753" lon="-1.34484">
        <ele>33</ele>
        <time>2023-11-01T01:41:02Z</time>
      </trkpt>
      <trkpt lat="46.5588" lon="-1.34724">
        <ele>29</ele>
        <time>2023-11-01T01:45:40Z</time>
      </trkpt>
      <trkpt lat="46.55951" lon="-1.3478">
        <ele>28</ele>
        <time>2023-11-01T01:47:28Z</time>
      </trkpt>
      <trkpt lat="46.56075" lon="-1.34947">
        <ele>26</ele>
        <time>2023-11-01T01:51:14Z</time>
      </trkpt>
      <trkpt lat="46.56193" lon="-1.34994">
        <ele>28</ele>
        <time>2023-11-01T01:53:57Z</time>
      </trkpt>
      <trkpt lat="46.56258" lon="-1.34943">
        <ele>33</ele>
        <time>2023-11-01T01:55:36Z</time>
      </trkpt>
      <trkpt lat="46.56302" lon="-1.34792">
        <ele>39</ele>
        <time>2023-11-01T01:58:06Z</time>
      </trkpt>
      <trkpt lat="46.56384" lon="-1.34715">
        <ele>40</ele>
        <time>2023-11-01T02:00:16Z</time>
      </trkpt>
      <trkpt lat="46.56461" lon="-1.34835">
        <ele>41</ele>
        <time>2023-11-01T02:02:47Z</time>
      </trkpt>
      <trkpt lat="46.5657" lon="-1.349">
        <ele>41</ele>
        <time>2023-11-01T02:05:24Z</time>
      </trkpt>
      <trkpt lat="46.56644" lon="-1.34977">
        <ele>37</ele>
        <time>2023-11-01T02:07:25Z</time>
      </trkpt>
      <trkpt lat="46.56747" lon="-1.34994">
        <ele>34</ele>
        <time>2023-11-01T02:09:44Z</time>
      </trkpt>
      <trkpt lat="46.56777" lon="-1.35097">
        <ele>30</ele>
        <time>2023-11-01T02:11:26Z</time>
      </trkpt>
      <trkpt lat="46.56842" lon="-1.35144">
        <ele>34</ele>
        <time>2023-11-01T02:13:03Z</time>
      </trkpt>
      <trkpt lat="46.5688" lon="-1.35101">
        <ele>37</ele>
        <time>2023-11-01T02:14:08Z</time>
      </trkpt>
      <trkpt lat="46.56969" lon="-1.35342">
        <ele>42</ele>
        <time>2023-11-01T02:18:19Z</time>
      </trkpt>
      <trkpt lat="46.57084" lon="-1.35252">
        <ele>44</ele>
        <time>2023-11-01T02:21:13Z</time>
      </trkpt>
      <trkpt lat="46.57155" lon="-1.35252">
        <ele>45</ele>
        <time>2023-11-01T02:22:48Z</time>
      </trkpt>
      <trkpt lat="46.57222" lon="-1.35522">
        <ele>39</ele>
        <time>2023-11-01T02:27:11Z</time>
      </trkpt>
      <trkpt lat="46.57317" lon="-1.35531">
        <ele>33</ele>
        <time>2023-11-01T02:29:18Z</time>
      </trkpt>
      <trkpt lat="46.57447" lon="-1.35406">
        <ele>37</ele>
        <time>2023-11-01T02:32:46Z</time>
      </trkpt>
      <trkpt lat="46.57579" lon="-1.35368">
        <ele>36</ele>
        <time>2023-11-01T02:35:45Z</time>
      </trkpt>
      <trkpt lat="46.57674" lon="-1.35453">
        <ele>34</ele>
        <time>2023-11-01T02:38:14Z</time>
      </trkpt>
      <trkpt lat="46.5778" lon="-1.35368">
        <ele>49</ele>
        <time>2023-11-01T02:40:56Z</time>
      </trkpt>
      <trkpt lat="46.57821" lon="-1.35415">
        <ele>49</ele>
        <time>2023-11-01T02:42:05Z</time>
      </trkpt>
      <trkpt lat="46.57824" lon="-1.35539">
        <ele>43</ele>
        <time>2023-11-01T02:43:59Z</time>
      </trkpt>
      <trkpt lat="46.57863" lon="-1.35677">
        <ele>41</ele>
        <time>2023-11-01T02:46:16Z</time>
      </trkpt>
      <trkpt lat="46.57833" lon="-1.35797">
        <ele>36</ele>
        <time>2023-11-01T02:48:13Z</time>
      </trkpt>
      <trkpt lat="46.5791" lon="-1.36041">
        <ele>38</ele>
        <time>2023-11-01T02:52:19Z</time>
      </trkpt>
      <trkpt lat="46.58034" lon="-1.36243">
        <ele>41</ele>
        <time>2023-11-01T02:56:28Z</time>
      </trkpt>
      <trkpt lat="46.58087" lon="-1.3626">
        <ele>40</ele>
        <time>2023-11-01T02:57:40Z</time>
      </trkpt>
      <trkpt lat="46.58199" lon="-1.36153">
        <ele>40</ele>
        <time>2023-11-01T03:00:39Z</time>
      </trkpt>
      <trkpt lat="46.58261" lon="-1.36355">
        <ele>31</ele>
        <time>2023-11-01T03:04:02Z</time>
      </trkpt>
      <trkpt lat="46.58314" lon="-1.36436">
        <ele>35</ele>
        <time>2023-11-01T03:05:45Z</time>
      </trkpt>
      <trkpt lat="46.58388" lon="-1.36573">
        <ele>43</ele>
        <time>2023-11-01T03:08:24Z</time>
      </trkpt>
    </trkseg>
  </trk>
  <trk>
    <name><![CDATA[ChailléOrmeaux_Néflier_9,2km-6553433]]></name>
    <extensions>
      <line xmlns="http://www.topografix.com/GPX/gpx_style/0/2">
        <color>FF0000</color>
        <width>4</width>
      </line>
    </extensions>
    <trkseg>
      <trkpt lat="46.58402" lon="-1.36533">
        <ele>42</ele>
        <time>2023-10-31T20:58:03Z</time>
      </trkpt>
      <trkpt lat="46.58644" lon="-1.36475">
        <ele>34</ele>
        <time>2023-10-31T21:03:30Z</time>
      </trkpt>
      <trkpt lat="46.58529" lon="-1.36947">
        <ele>46</ele>
        <time>2023-10-31T21:11:10Z</time>
      </trkpt>
      <trkpt lat="46.58606" lon="-1.37114">
        <ele>54</ele>
        <time>2023-10-31T21:14:14Z</time>
      </trkpt>
      <trkpt lat="46.58662" lon="-1.37496">
        <ele>53</ele>
        <time>2023-10-31T21:20:12Z</time>
      </trkpt>
      <trkpt lat="46.58809" lon="-1.37496">
        <ele>39</ele>
        <time>2023-10-31T21:23:28Z</time>
      </trkpt>
      <trkpt lat="46.58877" lon="-1.37518">
        <ele>40</ele>
        <time>2023-10-31T21:25:01Z</time>
      </trkpt>
      <trkpt lat="46.58969" lon="-1.37591">
        <ele>49</ele>
        <time>2023-10-31T21:27:21Z</time>
      </trkpt>
      <trkpt lat="46.59039" lon="-1.37702">
        <ele>53</ele>
        <time>2023-10-31T21:29:39Z</time>
      </trkpt>
      <trkpt lat="46.5909" lon="-1.37603">
        <ele>47</ele>
        <time>2023-10-31T21:31:33Z</time>
      </trkpt>
      <trkpt lat="46.59231" lon="-1.37595">
        <ele>44</ele>
        <time>2023-10-31T21:34:41Z</time>
      </trkpt>
      <trkpt lat="46.59446" lon="-1.37706">
        <ele>37</ele>
        <time>2023-10-31T21:39:46Z</time>
      </trkpt>
      <trkpt lat="46.59671" lon="-1.37921">
        <ele>33</ele>
        <time>2023-10-31T21:45:45Z</time>
      </trkpt>
      <trkpt lat="46.59712" lon="-1.37973">
        <ele>34</ele>
        <time>2023-10-31T21:46:57Z</time>
      </trkpt>
      <trkpt lat="46.60107" lon="-1.37702">
        <ele>36</ele>
        <time>2023-10-31T21:56:40Z</time>
      </trkpt>
      <trkpt lat="46.60136" lon="-1.3796">
        <ele>31</ele>
        <time>2023-10-31T22:00:40Z</time>
      </trkpt>
      <trkpt lat="46.60234" lon="-1.37998">
        <ele>34</ele>
        <time>2023-10-31T22:02:55Z</time>
      </trkpt>
      <trkpt lat="46.60213" lon="-1.38144">
        <ele>34</ele>
        <time>2023-10-31T22:05:12Z</time>
      </trkpt>
      <trkpt lat="46.6036" lon="-1.38385">
        <ele>37</ele>
        <time>2023-10-31T22:10:07Z</time>
      </trkpt>
      <trkpt lat="46.60419" lon="-1.38595">
        <ele>40</ele>
        <time>2023-10-31T22:13:35Z</time>
      </trkpt>
      <trkpt lat="46.60293" lon="-1.38814">
        <ele>45</ele>
        <time>2023-10-31T22:17:57Z</time>
      </trkpt>
      <trkpt lat="46.60257" lon="-1.38998">
        <ele>50</ele>
        <time>2023-10-31T22:20:53Z</time>
      </trkpt>
      <trkpt lat="46.60461" lon="-1.39097">
        <ele>35</ele>
        <time>2023-10-31T22:25:40Z</time>
      </trkpt>
      <trkpt lat="46.60549" lon="-1.3929">
        <ele>36</ele>
        <time>2023-10-31T22:29:12Z</time>
      </trkpt>
      <trkpt lat="46.6062" lon="-1.39217">
        <ele>35</ele>
        <time>2023-10-31T22:31:08Z</time>
      </trkpt>
      <trkpt lat="46.60679" lon="-1.39063">
        <ele>35</ele>
        <time>2023-10-31T22:33:50Z</time>
      </trkpt>
      <trkpt lat="46.60882" lon="-1.38766">
        <ele>40</ele>
        <time>2023-10-31T22:40:14Z</time>
      </trkpt>
      <trkpt lat="46.60947" lon="-1.38573">
        <ele>47</ele>
        <time>2023-10-31T22:43:31Z</time>
      </trkpt>
      <trkpt lat="46.608" lon="-1.38543">
        <ele>37</ele>
        <time>2023-10-31T22:46:49Z</time>
      </trkpt>
      <trkpt lat="46.6077" lon="-1.3835">
        <ele>36</ele>
        <time>2023-10-31T22:49:50Z</time>
      </trkpt>
      <trkpt lat="46.60785" lon="-1.3826">
        <ele>37</ele>
        <time>2023-10-31T22:51:15Z</time>
      </trkpt>
      <trkpt lat="46.60705" lon="-1.38161">
        <ele>35</ele>
        <time>2023-10-31T22:53:35Z</time>
      </trkpt>
      <trkpt lat="46.60585" lon="-1.37724">
        <ele>40</ele>
        <time>2023-10-31T23:00:47Z</time>
      </trkpt>
      <trkpt lat="46.60537" lon="-1.375">
        <ele>45</ele>
        <time>2023-10-31T23:04:22Z</time>
      </trkpt>
      <trkpt lat="46.60393" lon="-1.37372">
        <ele>54</ele>
        <time>2023-10-31T23:08:07Z</time>
      </trkpt>
      <trkpt lat="46.60201" lon="-1.37325">
        <ele>65</ele>
        <time>2023-10-31T23:12:27Z</time>
      </trkpt>
      <trkpt lat="46.60095" lon="-1.3735">
        <ele>68</ele>
        <time>2023-10-31T23:14:50Z</time>
      </trkpt>
      <trkpt lat="46.59788" lon="-1.37273">
        <ele>60</ele>
        <time>2023-10-31T23:21:46Z</time>
      </trkpt>
      <trkpt lat="46.5957" lon="-1.37264">
        <ele>55</ele>
        <time>2023-10-31T23:26:37Z</time>
      </trkpt>
      <trkpt lat="46.59393" lon="-1.3711">
        <ele>47</ele>
        <time>2023-10-31T23:31:12Z</time>
      </trkpt>
      <trkpt lat="46.59296" lon="-1.36977">
        <ele>47</ele>
        <time>2023-10-31T23:34:10Z</time>
      </trkpt>
      <trkpt lat="46.59057" lon="-1.36981">
        <ele>37</ele>
        <time>2023-10-31T23:39:29Z</time>
      </trkpt>
      <trkpt lat="46.58992" lon="-1.3693">
        <ele>34</ele>
        <time>2023-10-31T23:41:07Z</time>
      </trkpt>
      <trkpt lat="46.58951" lon="-1.36805">
        <ele>36</ele>
        <time>2023-10-31T23:43:14Z</time>
      </trkpt>
      <trkpt lat="46.58977" lon="-1.36719">
        <ele>41</ele>
        <time>2023-10-31T23:44:41Z</time>
      </trkpt>
      <trkpt lat="46.58936" lon="-1.36702">
        <ele>38</ele>
        <time>2023-10-31T23:45:38Z</time>
      </trkpt>
      <trkpt lat="46.58851" lon="-1.36719">
        <ele>32</ele>
        <time>2023-10-31T23:47:32Z</time>
      </trkpt>
      <trkpt lat="46.58839" lon="-1.36586">
        <ele>31</ele>
        <time>2023-10-31T23:49:35Z</time>
      </trkpt>
      <trkpt lat="46.58783" lon="-1.36522">
        <ele>31</ele>
        <time>2023-10-31T23:51:10Z</time>
      </trkpt>
      <trkpt lat="46.58721" lon="-1.36582">
        <ele>33</ele>
        <time>2023-10-31T23:52:49Z</time>
      </trkpt>
      <trkpt lat="46.58706" lon="-1.36479">
        <ele>33</ele>
        <time>2023-10-31T23:54:26Z</time>
      </trkpt>
      <trkpt lat="46.58364" lon="-1.36466">
        <ele>38</ele>
        <time>2023-11-01T00:02:03Z</time>
      </trkpt>
    </trkseg>
  </trk>
  <trk>
    <name><![CDATA[ChailléOrmeaux_Sureau_9.7km-7847315]]></name>
    <extensions>
      <line xmlns="http://www.topografix.com/GPX/gpx_style/0/2">
        <color>00FFFF</color>
        <width>4</width>
      </line>
    </extensions>
    <trkseg>
      <trkpt lat="46.58402" lon="-1.36529">
        <ele>42</ele>
        <time>2023-10-31T20:56:35Z</time>
      </trkpt>
      <trkpt lat="46.58391" lon="-1.36634">
        <ele>44</ele>
        <time>2023-10-31T20:58:12Z</time>
      </trkpt>
      <trkpt lat="46.58158" lon="-1.36732">
        <ele>39</ele>
        <time>2023-10-31T21:03:36Z</time>
      </trkpt>
      <trkpt lat="46.58063" lon="-1.3684">
        <ele>45</ele>
        <time>2023-10-31T21:06:17Z</time>
      </trkpt>
      <trkpt lat="46.57839" lon="-1.37097">
        <ele>58</ele>
        <time>2023-10-31T21:12:38Z</time>
      </trkpt>
      <trkpt lat="46.57553" lon="-1.37535">
        <ele>65</ele>
        <time>2023-10-31T21:21:52Z</time>
      </trkpt>
      <trkpt lat="46.57296" lon="-1.37745">
        <ele>67</ele>
        <time>2023-10-31T21:28:25Z</time>
      </trkpt>
      <trkpt lat="46.57163" lon="-1.37724">
        <ele>67</ele>
        <time>2023-10-31T21:31:24Z</time>
      </trkpt>
      <trkpt lat="46.57093" lon="-1.37758">
        <ele>69</ele>
        <time>2023-10-31T21:33:02Z</time>
      </trkpt>
      <trkpt lat="46.56924" lon="-1.37668">
        <ele>75</ele>
        <time>2023-10-31T21:37:02Z</time>
      </trkpt>
      <trkpt lat="46.56877" lon="-1.37788">
        <ele>75</ele>
        <time>2023-10-31T21:39:09Z</time>
      </trkpt>
      <trkpt lat="46.56402" lon="-1.37119">
        <ele>69</ele>
        <time>2023-10-31T21:53:51Z</time>
      </trkpt>
      <trkpt lat="46.56523" lon="-1.36788">
        <ele>72</ele>
        <time>2023-10-31T21:59:35Z</time>
      </trkpt>
      <trkpt lat="46.56606" lon="-1.36724">
        <ele>69</ele>
        <time>2023-10-31T22:01:41Z</time>
      </trkpt>
      <trkpt lat="46.56591" lon="-1.36556">
        <ele>68</ele>
        <time>2023-10-31T22:04:16Z</time>
      </trkpt>
      <trkpt lat="46.56629" lon="-1.3626">
        <ele>67</ele>
        <time>2023-10-31T22:08:52Z</time>
      </trkpt>
      <trkpt lat="46.56591" lon="-1.35964">
        <ele>59</ele>
        <time>2023-10-31T22:13:29Z</time>
      </trkpt>
      <trkpt lat="46.56615" lon="-1.35814">
        <ele>53</ele>
        <time>2023-10-31T22:15:50Z</time>
      </trkpt>
      <trkpt lat="46.5642" lon="-1.35638">
        <ele>50</ele>
        <time>2023-10-31T22:20:56Z</time>
      </trkpt>
      <trkpt lat="46.56178" lon="-1.35784">
        <ele>62</ele>
        <time>2023-10-31T22:26:46Z</time>
      </trkpt>
      <trkpt lat="46.5603" lon="-1.35496">
        <ele>52</ele>
        <time>2023-10-31T22:32:16Z</time>
      </trkpt>
      <trkpt lat="46.55942" lon="-1.35239">
        <ele>46</ele>
        <time>2023-10-31T22:36:39Z</time>
      </trkpt>
      <trkpt lat="46.55797" lon="-1.35093">
        <ele>40</ele>
        <time>2023-10-31T22:40:34Z</time>
      </trkpt>
      <trkpt lat="46.55874" lon="-1.34908">
        <ele>28</ele>
        <time>2023-10-31T22:43:53Z</time>
      </trkpt>
      <trkpt lat="46.5588" lon="-1.34732">
        <ele>29</ele>
        <time>2023-10-31T22:46:35Z</time>
      </trkpt>
      <trkpt lat="46.55968" lon="-1.34805">
        <ele>27</ele>
        <time>2023-10-31T22:48:50Z</time>
      </trkpt>
      <trkpt lat="46.56122" lon="-1.3496">
        <ele>27</ele>
        <time>2023-10-31T22:53:00Z</time>
      </trkpt>
      <trkpt lat="46.5624" lon="-1.34968">
        <ele>32</ele>
        <time>2023-10-31T22:55:37Z</time>
      </trkpt>
      <trkpt lat="46.56278" lon="-1.34818">
        <ele>38</ele>
        <time>2023-10-31T22:58:04Z</time>
      </trkpt>
      <trkpt lat="46.56382" lon="-1.34707">
        <ele>40</ele>
        <time>2023-10-31T23:00:56Z</time>
      </trkpt>
      <trkpt lat="46.56461" lon="-1.34827">
        <ele>41</ele>
        <time>2023-10-31T23:03:29Z</time>
      </trkpt>
      <trkpt lat="46.56585" lon="-1.349">
        <ele>42</ele>
        <time>2023-10-31T23:06:27Z</time>
      </trkpt>
      <trkpt lat="46.56615" lon="-1.34968">
        <ele>37</ele>
        <time>2023-10-31T23:07:41Z</time>
      </trkpt>
      <trkpt lat="46.56727" lon="-1.3496">
        <ele>37</ele>
        <time>2023-10-31T23:10:11Z</time>
      </trkpt>
      <trkpt lat="46.56786" lon="-1.35093">
        <ele>30</ele>
        <time>2023-10-31T23:12:36Z</time>
      </trkpt>
      <trkpt lat="46.5686" lon="-1.3514">
        <ele>36</ele>
        <time>2023-10-31T23:14:24Z</time>
      </trkpt>
      <trkpt lat="46.5696" lon="-1.35372">
        <ele>40</ele>
        <time>2023-10-31T23:18:35Z</time>
      </trkpt>
      <trkpt lat="46.57155" lon="-1.35243">
        <ele>45</ele>
        <time>2023-10-31T23:23:21Z</time>
      </trkpt>
      <trkpt lat="46.57214" lon="-1.35522">
        <ele>40</ele>
        <time>2023-10-31T23:27:49Z</time>
      </trkpt>
      <trkpt lat="46.57308" lon="-1.35513">
        <ele>36</ele>
        <time>2023-10-31T23:29:54Z</time>
      </trkpt>
      <trkpt lat="46.57458" lon="-1.354">
        <ele>37</ele>
        <time>2023-10-31T23:33:40Z</time>
      </trkpt>
      <trkpt lat="46.57582" lon="-1.35357">
        <ele>38</ele>
        <time>2023-10-31T23:36:30Z</time>
      </trkpt>
      <trkpt lat="46.57674" lon="-1.35453">
        <ele>34</ele>
        <time>2023-10-31T23:39:01Z</time>
      </trkpt>
      <trkpt lat="46.57827" lon="-1.35398">
        <ele>50</ele>
        <time>2023-10-31T23:42:31Z</time>
      </trkpt>
      <trkpt lat="46.57868" lon="-1.35694">
        <ele>41</ele>
        <time>2023-10-31T23:47:08Z</time>
      </trkpt>
      <trkpt lat="46.57824" lon="-1.35857">
        <ele>34</ele>
        <time>2023-10-31T23:49:49Z</time>
      </trkpt>
      <trkpt lat="46.57922" lon="-1.36067">
        <ele>40</ele>
        <time>2023-10-31T23:53:42Z</time>
      </trkpt>
      <trkpt lat="46.58045" lon="-1.36243">
        <ele>42</ele>
        <time>2023-10-31T23:57:32Z</time>
      </trkpt>
      <trkpt lat="46.58175" lon="-1.3626">
        <ele>35</ele>
        <time>2023-11-01T00:00:26Z</time>
      </trkpt>
      <trkpt lat="46.58211" lon="-1.36131">
        <ele>40</ele>
        <time>2023-11-01T00:02:34Z</time>
      </trkpt>
      <trkpt lat="46.58314" lon="-1.3644">
        <ele>35</ele>
        <time>2023-11-01T00:07:49Z</time>
      </trkpt>
      <trkpt lat="46.58405" lon="-1.36522">
        <ele>42</ele>
        <time>2023-11-01T00:10:12Z</time>
      </trkpt>
    </trkseg>
  </trk>
  <trk>
    <name><![CDATA[Chaille_NeflierAulne_20km-8144845]]></name>
    <extensions>
      <line xmlns="http://www.topografix.com/GPX/gpx_style/0/2">
        <color>FF00FF</color>
        <width>4</width>
      </line>
    </extensions>
    <trkseg>
      <trkpt lat="46.60564" lon="-1.39359">
        <ele>36</ele>
        <time>2023-11-05T17:56:14Z</time>
      </trkpt>
      <trkpt lat="46.60614" lon="-1.39372">
        <ele>36</ele>
        <time>2023-11-05T17:57:22Z</time>
      </trkpt>
      <trkpt lat="46.6062" lon="-1.39247">
        <ele>36</ele>
        <time>2023-11-05T17:59:17Z</time>
      </trkpt>
      <trkpt lat="46.60543" lon="-1.39264">
        <ele>36</ele>
        <time>2023-11-05T18:01:01Z</time>
      </trkpt>
      <trkpt lat="46.60458" lon="-1.39097">
        <ele>35</ele>
        <time>2023-11-05T18:04:11Z</time>
      </trkpt>
      <trkpt lat="46.60266" lon="-1.38994">
        <ele>49</ele>
        <time>2023-11-05T18:08:44Z</time>
      </trkpt>
      <trkpt lat="46.6029" lon="-1.38852">
        <ele>46</ele>
        <time>2023-11-05T18:10:58Z</time>
      </trkpt>
      <trkpt lat="46.60419" lon="-1.38578">
        <ele>40</ele>
        <time>2023-11-05T18:16:03Z</time>
      </trkpt>
      <trkpt lat="46.60372" lon="-1.385">
        <ele>40</ele>
        <time>2023-11-05T18:17:38Z</time>
      </trkpt>
      <trkpt lat="46.60352" lon="-1.38359">
        <ele>37</ele>
        <time>2023-11-05T18:19:50Z</time>
      </trkpt>
      <trkpt lat="46.60245" lon="-1.38213">
        <ele>35</ele>
        <time>2023-11-05T18:23:06Z</time>
      </trkpt>
      <trkpt lat="46.6029" lon="-1.3799">
        <ele>34</ele>
        <time>2023-11-05T18:26:39Z</time>
      </trkpt>
      <trkpt lat="46.60231" lon="-1.37964">
        <ele>34</ele>
        <time>2023-11-05T18:28:01Z</time>
      </trkpt>
      <trkpt lat="46.60243" lon="-1.379">
        <ele>33</ele>
        <time>2023-11-05T18:29:02Z</time>
      </trkpt>
      <trkpt lat="46.60184" lon="-1.37878">
        <ele>31</ele>
        <time>2023-11-05T18:30:23Z</time>
      </trkpt>
      <trkpt lat="46.6016" lon="-1.37651">
        <ele>38</ele>
        <time>2023-11-05T18:33:54Z</time>
      </trkpt>
      <trkpt lat="46.60039" lon="-1.37754">
        <ele>34</ele>
        <time>2023-11-05T18:37:01Z</time>
      </trkpt>
      <trkpt lat="46.59918" lon="-1.37861">
        <ele>32</ele>
        <time>2023-11-05T18:40:10Z</time>
      </trkpt>
      <trkpt lat="46.59812" lon="-1.37891">
        <ele>31</ele>
        <time>2023-11-05T18:42:34Z</time>
      </trkpt>
      <trkpt lat="46.59744" lon="-1.3796">
        <ele>33</ele>
        <time>2023-11-05T18:44:24Z</time>
      </trkpt>
      <trkpt lat="46.59614" lon="-1.37925">
        <ele>33</ele>
        <time>2023-11-05T18:47:21Z</time>
      </trkpt>
      <trkpt lat="46.59558" lon="-1.37857">
        <ele>33</ele>
        <time>2023-11-05T18:48:58Z</time>
      </trkpt>
      <trkpt lat="46.59464" lon="-1.37805">
        <ele>39</ele>
        <time>2023-11-05T18:51:12Z</time>
      </trkpt>
      <trkpt lat="46.59408" lon="-1.37664">
        <ele>37</ele>
        <time>2023-11-05T18:53:42Z</time>
      </trkpt>
      <trkpt lat="46.59367" lon="-1.37672">
        <ele>43</ele>
        <time>2023-11-05T18:54:37Z</time>
      </trkpt>
      <trkpt lat="46.59331" lon="-1.37741">
        <ele>48</ele>
        <time>2023-11-05T18:55:56Z</time>
      </trkpt>
      <trkpt lat="46.59243" lon="-1.37629">
        <ele>47</ele>
        <time>2023-11-05T18:58:32Z</time>
      </trkpt>
      <trkpt lat="46.59075" lon="-1.37599">
        <ele>47</ele>
        <time>2023-11-05T19:02:18Z</time>
      </trkpt>
      <trkpt lat="46.59031" lon="-1.37689">
        <ele>52</ele>
        <time>2023-11-05T19:04:00Z</time>
      </trkpt>
      <trkpt lat="46.58951" lon="-1.37569">
        <ele>47</ele>
        <time>2023-11-05T19:06:33Z</time>
      </trkpt>
      <trkpt lat="46.58809" lon="-1.375">
        <ele>39</ele>
        <time>2023-11-05T19:09:53Z</time>
      </trkpt>
      <trkpt lat="46.58733" lon="-1.37518">
        <ele>46</ele>
        <time>2023-11-05T19:11:35Z</time>
      </trkpt>
      <trkpt lat="46.58659" lon="-1.37492">
        <ele>54</ele>
        <time>2023-11-05T19:13:17Z</time>
      </trkpt>
      <trkpt lat="46.58647" lon="-1.37286">
        <ele>55</ele>
        <time>2023-11-05T19:16:27Z</time>
      </trkpt>
      <trkpt lat="46.58612" lon="-1.37063">
        <ele>52</ele>
        <time>2023-11-05T19:19:56Z</time>
      </trkpt>
      <trkpt lat="46.58538" lon="-1.36977">
        <ele>47</ele>
        <time>2023-11-05T19:22:03Z</time>
      </trkpt>
      <trkpt lat="46.58588" lon="-1.36749">
        <ele>40</ele>
        <time>2023-11-05T19:25:42Z</time>
      </trkpt>
      <trkpt lat="46.58603" lon="-1.36561">
        <ele>36</ele>
        <time>2023-11-05T19:28:36Z</time>
      </trkpt>
      <trkpt lat="46.58523" lon="-1.36531">
        <ele>38</ele>
        <time>2023-11-05T19:30:26Z</time>
      </trkpt>
      <trkpt lat="46.58644" lon="-1.36458">
        <ele>34</ele>
        <time>2023-11-05T19:33:21Z</time>
      </trkpt>
      <trkpt lat="46.58712" lon="-1.36496">
        <ele>33</ele>
        <time>2023-11-05T19:34:58Z</time>
      </trkpt>
      <trkpt lat="46.58724" lon="-1.36582">
        <ele>33</ele>
        <time>2023-11-05T19:36:19Z</time>
      </trkpt>
      <trkpt lat="46.5878" lon="-1.36535">
        <ele>31</ele>
        <time>2023-11-05T19:37:45Z</time>
      </trkpt>
      <trkpt lat="46.58842" lon="-1.36608">
        <ele>32</ele>
        <time>2023-11-05T19:39:31Z</time>
      </trkpt>
      <trkpt lat="46.58836" lon="-1.36707">
        <ele>32</ele>
        <time>2023-11-05T19:41:02Z</time>
      </trkpt>
      <trkpt lat="46.58892" lon="-1.36754">
        <ele>34</ele>
        <time>2023-11-05T19:42:29Z</time>
      </trkpt>
      <trkpt lat="46.58969" lon="-1.36694">
        <ele>42</ele>
        <time>2023-11-05T19:44:25Z</time>
      </trkpt>
      <trkpt lat="46.58983" lon="-1.36762">
        <ele>39</ele>
        <time>2023-11-05T19:45:30Z</time>
      </trkpt>
      <trkpt lat="46.58954" lon="-1.36827">
        <ele>36</ele>
        <time>2023-11-05T19:46:41Z</time>
      </trkpt>
      <trkpt lat="46.5901" lon="-1.3696">
        <ele>34</ele>
        <time>2023-11-05T19:49:04Z</time>
      </trkpt>
      <trkpt lat="46.59101" lon="-1.36981">
        <ele>39</ele>
        <time>2023-11-05T19:51:07Z</time>
      </trkpt>
      <trkpt lat="46.5929" lon="-1.36981">
        <ele>47</ele>
        <time>2023-11-05T19:55:20Z</time>
      </trkpt>
      <trkpt lat="46.59411" lon="-1.3714">
        <ele>49</ele>
        <time>2023-11-05T19:58:57Z</time>
      </trkpt>
      <trkpt lat="46.59547" lon="-1.3726">
        <ele>54</ele>
        <time>2023-11-05T20:02:29Z</time>
      </trkpt>
      <trkpt lat="46.59682" lon="-1.3729">
        <ele>55</ele>
        <time>2023-11-05T20:05:32Z</time>
      </trkpt>
      <trkpt lat="46.59797" lon="-1.37273">
        <ele>60</ele>
        <time>2023-11-05T20:08:06Z</time>
      </trkpt>
      <trkpt lat="46.59945" lon="-1.37294">
        <ele>63</ele>
        <time>2023-11-05T20:11:24Z</time>
      </trkpt>
      <trkpt lat="46.60077" lon="-1.3735">
        <ele>68</ele>
        <time>2023-11-05T20:14:28Z</time>
      </trkpt>
      <trkpt lat="46.60207" lon="-1.37342">
        <ele>65</ele>
        <time>2023-11-05T20:17:21Z</time>
      </trkpt>
      <trkpt lat="46.60417" lon="-1.37402">
        <ele>53</ele>
        <time>2023-11-05T20:22:07Z</time>
      </trkpt>
      <trkpt lat="46.6049" lon="-1.37436">
        <ele>48</ele>
        <time>2023-11-05T20:23:49Z</time>
      </trkpt>
      <trkpt lat="46.60549" lon="-1.37505">
        <ele>45</ele>
        <time>2023-11-05T20:25:30Z</time>
      </trkpt>
      <trkpt lat="46.60552" lon="-1.37659">
        <ele>41</ele>
        <time>2023-11-05T20:27:52Z</time>
      </trkpt>
      <trkpt lat="46.60608" lon="-1.37779">
        <ele>39</ele>
        <time>2023-11-05T20:30:05Z</time>
      </trkpt>
      <trkpt lat="46.60664" lon="-1.3796">
        <ele>35</ele>
        <time>2023-11-05T20:33:07Z</time>
      </trkpt>
      <trkpt lat="46.60702" lon="-1.38076">
        <ele>36</ele>
        <time>2023-11-05T20:35:04Z</time>
      </trkpt>
      <trkpt lat="46.60717" lon="-1.38191">
        <ele>35</ele>
        <time>2023-11-05T20:36:52Z</time>
      </trkpt>
      <trkpt lat="46.60779" lon="-1.38264">
        <ele>37</ele>
        <time>2023-11-05T20:38:38Z</time>
      </trkpt>
      <trkpt lat="46.60806" lon="-1.38552">
        <ele>37</ele>
        <time>2023-11-05T20:43:05Z</time>
      </trkpt>
      <trkpt lat="46.60938" lon="-1.38573">
        <ele>46</ele>
        <time>2023-11-05T20:46:02Z</time>
      </trkpt>
      <trkpt lat="46.60838" lon="-1.38861">
        <ele>39</ele>
        <time>2023-11-05T20:50:58Z</time>
      </trkpt>
      <trkpt lat="46.60676" lon="-1.39071">
        <ele>35</ele>
        <time>2023-11-05T20:55:47Z</time>
      </trkpt>
      <trkpt lat="46.60585" lon="-1.39247">
        <ele>36</ele>
        <time>2023-11-05T20:59:09Z</time>
      </trkpt>
      <trkpt lat="46.60573" lon="-1.39427">
        <ele>37</ele>
        <time>2023-11-05T21:01:55Z</time>
      </trkpt>
      <trkpt lat="46.6047" lon="-1.39496">
        <ele>41</ele>
        <time>2023-11-05T21:04:26Z</time>
      </trkpt>
      <trkpt lat="46.60331" lon="-1.39449">
        <ele>48</ele>
        <time>2023-11-05T21:07:37Z</time>
      </trkpt>
      <trkpt lat="46.60145" lon="-1.39595">
        <ele>57</ele>
        <time>2023-11-05T21:12:19Z</time>
      </trkpt>
      <trkpt lat="46.5947" lon="-1.39766">
        <ele>54</ele>
        <time>2023-11-05T21:27:33Z</time>
      </trkpt>
      <trkpt lat="46.59379" lon="-1.39934">
        <ele>60</ele>
        <time>2023-11-05T21:30:49Z</time>
      </trkpt>
      <trkpt lat="46.59205" lon="-1.39947">
        <ele>63</ele>
        <time>2023-11-05T21:34:42Z</time>
      </trkpt>
      <trkpt lat="46.59022" lon="-1.39994">
        <ele>62</ele>
        <time>2023-11-05T21:38:49Z</time>
      </trkpt>
      <trkpt lat="46.58948" lon="-1.40075">
        <ele>61</ele>
        <time>2023-11-05T21:40:53Z</time>
      </trkpt>
      <trkpt lat="46.5891" lon="-1.40028">
        <ele>62</ele>
        <time>2023-11-05T21:42:00Z</time>
      </trkpt>
      <trkpt lat="46.58795" lon="-1.40165">
        <ele>62</ele>
        <time>2023-11-05T21:45:18Z</time>
      </trkpt>
      <trkpt lat="46.58842" lon="-1.40243">
        <ele>59</ele>
        <time>2023-11-05T21:46:53Z</time>
      </trkpt>
      <trkpt lat="46.58783" lon="-1.4032">
        <ele>59</ele>
        <time>2023-11-05T21:48:39Z</time>
      </trkpt>
      <trkpt lat="46.58803" lon="-1.40565">
        <ele>62</ele>
        <time>2023-11-05T21:52:25Z</time>
      </trkpt>
      <trkpt lat="46.58904" lon="-1.40526">
        <ele>61</ele>
        <time>2023-11-05T21:54:45Z</time>
      </trkpt>
      <trkpt lat="46.58951" lon="-1.40603">
        <ele>59</ele>
        <time>2023-11-05T21:56:19Z</time>
      </trkpt>
      <trkpt lat="46.59063" lon="-1.40668">
        <ele>58</ele>
        <time>2023-11-05T21:59:00Z</time>
      </trkpt>
      <trkpt lat="46.59184" lon="-1.40625">
        <ele>59</ele>
        <time>2023-11-05T22:01:46Z</time>
      </trkpt>
      <trkpt lat="46.5934" lon="-1.40792">
        <ele>65</ele>
        <time>2023-11-05T22:06:05Z</time>
      </trkpt>
      <trkpt lat="46.59494" lon="-1.40959">
        <ele>67</ele>
        <time>2023-11-05T22:10:21Z</time>
      </trkpt>
      <trkpt lat="46.59535" lon="-1.41054">
        <ele>67</ele>
        <time>2023-11-05T22:12:04Z</time>
      </trkpt>
      <trkpt lat="46.5975" lon="-1.41195">
        <ele>66</ele>
        <time>2023-11-05T22:17:18Z</time>
      </trkpt>
      <trkpt lat="46.59871" lon="-1.41183">
        <ele>66</ele>
        <time>2023-11-05T22:20:00Z</time>
      </trkpt>
      <trkpt lat="46.60057" lon="-1.4135">
        <ele>62</ele>
        <time>2023-11-05T22:24:52Z</time>
      </trkpt>
      <trkpt lat="46.60281" lon="-1.4147">
        <ele>57</ele>
        <time>2023-11-05T22:30:10Z</time>
      </trkpt>
      <trkpt lat="46.60446" lon="-1.41715">
        <ele>55</ele>
        <time>2023-11-05T22:35:25Z</time>
      </trkpt>
      <trkpt lat="46.60664" lon="-1.41929">
        <ele>57</ele>
        <time>2023-11-05T22:41:16Z</time>
      </trkpt>
      <trkpt lat="46.60593" lon="-1.42045">
        <ele>59</ele>
        <time>2023-11-05T22:43:38Z</time>
      </trkpt>
      <trkpt lat="46.60617" lon="-1.42191">
        <ele>57</ele>
        <time>2023-11-05T22:45:56Z</time>
      </trkpt>
      <trkpt lat="46.60862" lon="-1.4247">
        <ele>54</ele>
        <time>2023-11-05T22:52:51Z</time>
      </trkpt>
      <trkpt lat="46.60997" lon="-1.42573">
        <ele>50</ele>
        <time>2023-11-05T22:56:14Z</time>
      </trkpt>
      <trkpt lat="46.61121" lon="-1.42358">
        <ele>51</ele>
        <time>2023-11-05T23:00:32Z</time>
      </trkpt>
      <trkpt lat="46.61672" lon="-1.42251">
        <ele>52</ele>
        <time>2023-11-05T23:12:54Z</time>
      </trkpt>
      <trkpt lat="46.61761" lon="-1.42337">
        <ele>49</ele>
        <time>2023-11-05T23:15:16Z</time>
      </trkpt>
      <trkpt lat="46.61849" lon="-1.42268">
        <ele>45</ele>
        <time>2023-11-05T23:17:30Z</time>
      </trkpt>
      <trkpt lat="46.61949" lon="-1.4226">
        <ele>42</ele>
        <time>2023-11-05T23:19:43Z</time>
      </trkpt>
      <trkpt lat="46.62003" lon="-1.42122">
        <ele>43</ele>
        <time>2023-11-05T23:22:09Z</time>
      </trkpt>
      <trkpt lat="46.61994" lon="-1.42067">
        <ele>43</ele>
        <time>2023-11-05T23:23:01Z</time>
      </trkpt>
      <trkpt lat="46.61832" lon="-1.42135">
        <ele>48</ele>
        <time>2023-11-05T23:26:46Z</time>
      </trkpt>
      <trkpt lat="46.61675" lon="-1.41886">
        <ele>52</ele>
        <time>2023-11-05T23:31:55Z</time>
      </trkpt>
      <trkpt lat="46.61581" lon="-1.41689">
        <ele>50</ele>
        <time>2023-11-05T23:35:35Z</time>
      </trkpt>
      <trkpt lat="46.61507" lon="-1.4144">
        <ele>43</ele>
        <time>2023-11-05T23:39:44Z</time>
      </trkpt>
      <trkpt lat="46.61678" lon="-1.41298">
        <ele>42</ele>
        <time>2023-11-05T23:44:07Z</time>
      </trkpt>
      <trkpt lat="46.61708" lon="-1.41148">
        <ele>36</ele>
        <time>2023-11-05T23:46:30Z</time>
      </trkpt>
      <trkpt lat="46.61826" lon="-1.41041">
        <ele>33</ele>
        <time>2023-11-05T23:49:35Z</time>
      </trkpt>
      <trkpt lat="46.61808" lon="-1.40788">
        <ele>33</ele>
        <time>2023-11-05T23:53:28Z</time>
      </trkpt>
      <trkpt lat="46.61743" lon="-1.40535">
        <ele>32</ele>
        <time>2023-11-05T23:57:36Z</time>
      </trkpt>
      <trkpt lat="46.61664" lon="-1.40505">
        <ele>33</ele>
        <time>2023-11-05T23:59:25Z</time>
      </trkpt>
      <trkpt lat="46.61513" lon="-1.40075">
        <ele>34</ele>
        <time>2023-11-06T00:06:48Z</time>
      </trkpt>
      <trkpt lat="46.61277" lon="-1.40002">
        <ele>34</ele>
        <time>2023-11-06T00:12:10Z</time>
      </trkpt>
      <trkpt lat="46.61236" lon="-1.39891">
        <ele>33</ele>
        <time>2023-11-06T00:14:05Z</time>
      </trkpt>
      <trkpt lat="46.61124" lon="-1.39822">
        <ele>32</ele>
        <time>2023-11-06T00:16:47Z</time>
      </trkpt>
      <trkpt lat="46.61151" lon="-1.39663">
        <ele>35</ele>
        <time>2023-11-06T00:19:18Z</time>
      </trkpt>
      <trkpt lat="46.60977" lon="-1.39522">
        <ele>39</ele>
        <time>2023-11-06T00:23:43Z</time>
      </trkpt>
      <trkpt lat="46.60688" lon="-1.39221">
        <ele>36</ele>
        <time>2023-11-06T00:31:38Z</time>
      </trkpt>
      <trkpt lat="46.60588" lon="-1.39286">
        <ele>36</ele>
        <time>2023-11-06T00:34:04Z</time>
      </trkpt>
      <trkpt lat="46.60502" lon="-1.39372">
        <ele>36</ele>
        <time>2023-11-06T00:36:23Z</time>
      </trkpt>
    </trkseg>
  </trk>
  <trk>
    <name><![CDATA[NesmyAulne_10km-7846715]]></name>
    <extensions>
      <line xmlns="http://www.topografix.com/GPX/gpx_style/0/2">
        <color>000088</color>
        <width>4</width>
      </line>
    </extensions>
    <trkseg>
      <trkpt lat="46.59205" lon="-1.39947">
        <ele>63</ele>
        <time>2023-11-05T17:55:58Z</time>
      </trkpt>
      <trkpt lat="46.59376" lon="-1.39929">
        <ele>60</ele>
        <time>2023-11-05T17:59:47Z</time>
      </trkpt>
      <trkpt lat="46.59461" lon="-1.39771">
        <ele>55</ele>
        <time>2023-11-05T18:02:51Z</time>
      </trkpt>
      <trkpt lat="46.60157" lon="-1.39616">
        <ele>57</ele>
        <time>2023-11-05T18:18:30Z</time>
      </trkpt>
      <trkpt lat="46.60319" lon="-1.39449">
        <ele>48</ele>
        <time>2023-11-05T18:22:55Z</time>
      </trkpt>
      <trkpt lat="46.60467" lon="-1.39487">
        <ele>41</ele>
        <time>2023-11-05T18:26:16Z</time>
      </trkpt>
      <trkpt lat="46.60608" lon="-1.39372">
        <ele>36</ele>
        <time>2023-11-05T18:29:52Z</time>
      </trkpt>
      <trkpt lat="46.60632" lon="-1.39243">
        <ele>35</ele>
        <time>2023-11-05T18:31:54Z</time>
      </trkpt>
      <trkpt lat="46.60688" lon="-1.39221">
        <ele>36</ele>
        <time>2023-11-05T18:33:11Z</time>
      </trkpt>
      <trkpt lat="46.60859" lon="-1.39372">
        <ele>39</ele>
        <time>2023-11-05T18:37:38Z</time>
      </trkpt>
      <trkpt lat="46.61139" lon="-1.39651">
        <ele>35</ele>
        <time>2023-11-05T18:45:11Z</time>
      </trkpt>
      <trkpt lat="46.61136" lon="-1.39822">
        <ele>32</ele>
        <time>2023-11-05T18:47:48Z</time>
      </trkpt>
      <trkpt lat="46.61224" lon="-1.39861">
        <ele>33</ele>
        <time>2023-11-05T18:49:51Z</time>
      </trkpt>
      <trkpt lat="46.61269" lon="-1.39998">
        <ele>35</ele>
        <time>2023-11-05T18:52:10Z</time>
      </trkpt>
      <trkpt lat="46.61498" lon="-1.40071">
        <ele>35</ele>
        <time>2023-11-05T18:57:23Z</time>
      </trkpt>
      <trkpt lat="46.61581" lon="-1.40273">
        <ele>31</ele>
        <time>2023-11-05T19:00:59Z</time>
      </trkpt>
      <trkpt lat="46.61652" lon="-1.40505">
        <ele>33</ele>
        <time>2023-11-05T19:04:51Z</time>
      </trkpt>
      <trkpt lat="46.6174" lon="-1.40526">
        <ele>32</ele>
        <time>2023-11-05T19:06:50Z</time>
      </trkpt>
      <trkpt lat="46.61829" lon="-1.41062">
        <ele>34</ele>
        <time>2023-11-05T19:15:16Z</time>
      </trkpt>
      <trkpt lat="46.61705" lon="-1.41174">
        <ele>37</ele>
        <time>2023-11-05T19:18:31Z</time>
      </trkpt>
      <trkpt lat="46.61613" lon="-1.41376">
        <ele>43</ele>
        <time>2023-11-05T19:22:13Z</time>
      </trkpt>
      <trkpt lat="46.61504" lon="-1.41432">
        <ele>42</ele>
        <time>2023-11-05T19:24:47Z</time>
      </trkpt>
      <trkpt lat="46.61625" lon="-1.41805">
        <ele>51</ele>
        <time>2023-11-05T19:31:05Z</time>
      </trkpt>
      <trkpt lat="46.61846" lon="-1.42135">
        <ele>48</ele>
        <time>2023-11-05T19:38:07Z</time>
      </trkpt>
      <trkpt lat="46.61991" lon="-1.42092">
        <ele>43</ele>
        <time>2023-11-05T19:41:25Z</time>
      </trkpt>
      <trkpt lat="46.61952" lon="-1.42243">
        <ele>42</ele>
        <time>2023-11-05T19:43:53Z</time>
      </trkpt>
      <trkpt lat="46.61949" lon="-1.42247">
        <ele>42</ele>
        <time>2023-11-05T19:43:58Z</time>
      </trkpt>
      <trkpt lat="46.61773" lon="-1.42354">
        <ele>49</ele>
        <time>2023-11-05T19:48:13Z</time>
      </trkpt>
      <trkpt lat="46.61669" lon="-1.42247">
        <ele>52</ele>
        <time>2023-11-05T19:51:03Z</time>
      </trkpt>
      <trkpt lat="46.61136" lon="-1.42354">
        <ele>50</ele>
        <time>2023-11-05T20:03:01Z</time>
      </trkpt>
      <trkpt lat="46.60991" lon="-1.42547">
        <ele>50</ele>
        <time>2023-11-05T20:07:23Z</time>
      </trkpt>
      <trkpt lat="46.60894" lon="-1.42534">
        <ele>52</ele>
        <time>2023-11-05T20:09:33Z</time>
      </trkpt>
      <trkpt lat="46.6062" lon="-1.42191">
        <ele>57</ele>
        <time>2023-11-05T20:17:35Z</time>
      </trkpt>
      <trkpt lat="46.60579" lon="-1.42045">
        <ele>59</ele>
        <time>2023-11-05T20:20:00Z</time>
      </trkpt>
      <trkpt lat="46.60661" lon="-1.41912">
        <ele>57</ele>
        <time>2023-11-05T20:22:44Z</time>
      </trkpt>
      <trkpt lat="46.60293" lon="-1.41479">
        <ele>57</ele>
        <time>2023-11-05T20:33:15Z</time>
      </trkpt>
      <trkpt lat="46.5988" lon="-1.41178">
        <ele>66</ele>
        <time>2023-11-05T20:43:31Z</time>
      </trkpt>
      <trkpt lat="46.59777" lon="-1.412">
        <ele>67</ele>
        <time>2023-11-05T20:45:50Z</time>
      </trkpt>
      <trkpt lat="46.59544" lon="-1.41058">
        <ele>67</ele>
        <time>2023-11-05T20:51:27Z</time>
      </trkpt>
      <trkpt lat="46.5944" lon="-1.40981">
        <ele>67</ele>
        <time>2023-11-05T20:54:03Z</time>
      </trkpt>
      <trkpt lat="46.59352" lon="-1.40844">
        <ele>65</ele>
        <time>2023-11-05T20:56:55Z</time>
      </trkpt>
      <trkpt lat="46.59181" lon="-1.40629">
        <ele>59</ele>
        <time>2023-11-05T21:01:57Z</time>
      </trkpt>
      <trkpt lat="46.59051" lon="-1.40535">
        <ele>57</ele>
        <time>2023-11-05T21:05:10Z</time>
      </trkpt>
      <trkpt lat="46.59122" lon="-1.40406">
        <ele>59</ele>
        <time>2023-11-05T21:07:42Z</time>
      </trkpt>
      <trkpt lat="46.59107" lon="-1.40157">
        <ele>63</ele>
        <time>2023-11-05T21:11:31Z</time>
      </trkpt>
      <trkpt lat="46.59175" lon="-1.40183">
        <ele>65</ele>
        <time>2023-11-05T21:13:05Z</time>
      </trkpt>
      <trkpt lat="46.59216" lon="-1.3999">
        <ele>63</ele>
        <time>2023-11-05T21:16:10Z</time>
      </trkpt>
    </trkseg>
  </trk>
  <trk>
    <name><![CDATA[ChailléOrmeaux_Orme_4,7km-6553503]]></name>
    <extensions>
      <line xmlns="http://www.topografix.com/GPX/gpx_style/0/2">
        <color>008800</color>
        <width>4</width>
      </line>
    </extensions>
    <trkseg>
      <trkpt lat="46.54643" lon="-1.33887">
        <ele>22</ele>
        <time>2023-11-12T06:21:18Z</time>
      </trkpt>
      <trkpt lat="46.54573" lon="-1.33896">
        <ele>31</ele>
        <time>2023-11-12T06:22:52Z</time>
      </trkpt>
      <trkpt lat="46.54537" lon="-1.33835">
        <ele>34</ele>
        <time>2023-11-12T06:24:06Z</time>
      </trkpt>
      <trkpt lat="46.54475" lon="-1.33853">
        <ele>37</ele>
        <time>2023-11-12T06:25:30Z</time>
      </trkpt>
      <trkpt lat="46.54422" lon="-1.33814">
        <ele>34</ele>
        <time>2023-11-12T06:26:49Z</time>
      </trkpt>
      <trkpt lat="46.54384" lon="-1.33994">
        <ele>37</ele>
        <time>2023-11-12T06:29:42Z</time>
      </trkpt>
      <trkpt lat="46.54348" lon="-1.33947">
        <ele>37</ele>
        <time>2023-11-12T06:30:47Z</time>
      </trkpt>
      <trkpt lat="46.54115" lon="-1.34157">
        <ele>43</ele>
        <time>2023-11-12T06:36:52Z</time>
      </trkpt>
      <trkpt lat="46.54074" lon="-1.34046">
        <ele>46</ele>
        <time>2023-11-12T06:38:48Z</time>
      </trkpt>
      <trkpt lat="46.53888" lon="-1.34003">
        <ele>53</ele>
        <time>2023-11-12T06:42:59Z</time>
      </trkpt>
      <trkpt lat="46.53734" lon="-1.33986">
        <ele>60</ele>
        <time>2023-11-12T06:46:25Z</time>
      </trkpt>
      <trkpt lat="46.53616" lon="-1.33891">
        <ele>58</ele>
        <time>2023-11-12T06:49:25Z</time>
      </trkpt>
      <trkpt lat="46.53569" lon="-1.34102">
        <ele>60</ele>
        <time>2023-11-12T06:52:49Z</time>
      </trkpt>
      <trkpt lat="46.53339" lon="-1.34119">
        <ele>37</ele>
        <time>2023-11-12T06:57:56Z</time>
      </trkpt>
      <trkpt lat="46.53291" lon="-1.34222">
        <ele>37</ele>
        <time>2023-11-12T06:59:51Z</time>
      </trkpt>
      <trkpt lat="46.53238" lon="-1.3423">
        <ele>35</ele>
        <time>2023-11-12T07:01:02Z</time>
      </trkpt>
      <trkpt lat="46.53283" lon="-1.33943">
        <ele>37</ele>
        <time>2023-11-12T07:05:32Z</time>
      </trkpt>
      <trkpt lat="46.53244" lon="-1.33788">
        <ele>39</ele>
        <time>2023-11-12T07:08:03Z</time>
      </trkpt>
      <trkpt lat="46.53477" lon="-1.33565">
        <ele>24</ele>
        <time>2023-11-12T07:14:16Z</time>
      </trkpt>
      <trkpt lat="46.5353" lon="-1.33436">
        <ele>24</ele>
        <time>2023-11-12T07:16:34Z</time>
      </trkpt>
      <trkpt lat="46.53631" lon="-1.33462">
        <ele>18</ele>
        <time>2023-11-12T07:18:51Z</time>
      </trkpt>
      <trkpt lat="46.53737" lon="-1.33531">
        <ele>21</ele>
        <time>2023-11-12T07:21:26Z</time>
      </trkpt>
      <trkpt lat="46.53826" lon="-1.33496">
        <ele>19</ele>
        <time>2023-11-12T07:23:29Z</time>
      </trkpt>
      <trkpt lat="46.54047" lon="-1.3314">
        <ele>13</ele>
        <time>2023-11-12T07:30:49Z</time>
      </trkpt>
      <trkpt lat="46.54142" lon="-1.33175">
        <ele>16</ele>
        <time>2023-11-12T07:33:00Z</time>
      </trkpt>
      <trkpt lat="46.54201" lon="-1.33282">
        <ele>23</ele>
        <time>2023-11-12T07:35:05Z</time>
      </trkpt>
      <trkpt lat="46.54292" lon="-1.33351">
        <ele>28</ele>
        <time>2023-11-12T07:37:22Z</time>
      </trkpt>
      <trkpt lat="46.5436" lon="-1.33338">
        <ele>25</ele>
        <time>2023-11-12T07:38:54Z</time>
      </trkpt>
      <trkpt lat="46.54398" lon="-1.33557">
        <ele>38</ele>
        <time>2023-11-12T07:42:21Z</time>
      </trkpt>
      <trkpt lat="46.54463" lon="-1.33582">
        <ele>33</ele>
        <time>2023-11-12T07:43:51Z</time>
      </trkpt>
      <trkpt lat="46.5444" lon="-1.33651">
        <ele>36</ele>
        <time>2023-11-12T07:45:01Z</time>
      </trkpt>
      <trkpt lat="46.54484" lon="-1.33724">
        <ele>36</ele>
        <time>2023-11-12T07:46:30Z</time>
      </trkpt>
      <trkpt lat="46.5444" lon="-1.33848">
        <ele>35</ele>
        <time>2023-11-12T07:48:38Z</time>
      </trkpt>
      <trkpt lat="46.54555" lon="-1.33801">
        <ele>33</ele>
        <time>2023-11-12T07:51:18Z</time>
      </trkpt>
      <trkpt lat="46.54694" lon="-1.33904">
        <ele>20</ele>
        <time>2023-11-12T07:54:46Z</time>
      </trkpt>
    </trkseg>
  </trk>
</gpx>